Time,TemperatureF,DewpointF,PressureIn,WindDirection,WindDirectionDegrees,WindSpeedMPH,WindSpeedGustMPH,Humidity,HourlyPrecipIn,Conditions,Clouds,dailyrainin,SoftwareType,DateUTC
2013-06-26 00:01:00,80.2,57.6,29.72,SSE,163,8.1,8.3,46,0.00,,CLR,0.00,VWS V14.01,2013-06-26 05:01:00,
2013-06-26 00:02:00,80.2,57.6,29.72,SSE,163,7.6,8.3,46,0.00,,CLR,0.00,VWS V14.01,2013-06-26 05:02:00,
2013-06-26 00:03:00,80.1,57.4,29.72,South,175,9.2,10.5,46,0.00,,CLR,0.00,VWS V14.01,2013-06-26 05:03:00,
2013-06-26 00:04:00,80.1,57.4,29.72,South,185,10.1,10.5,46,0.00,,CLR,0.00,VWS V14.01,2013-06-26 05:04:00,
2013-06-26 00:07:00,80.1,57.4,29.72,South,178,9.2,11.9,46,0.00,,CLR,0.00,VWS V14.01,2013-06-26 05:07:00,
2013-06-26 00:09:00,80.1,57.4,29.72,South,177,8.7,8.7,46,0.00,,CLR,0.00,VWS V14.01,2013-06-26 05:09:00,
2013-06-26 00:11:00,80.1,57.4,29.72,SSW,209,8.3,8.3,46,0.00,,CLR,0.00,VWS V14.01,2013-06-26 05:11:00,
2013-06-26 00:12:00,79.9,57.3,29.72,South,180,11.0,11.0,46,0.00,,CLR,0.00,VWS V14.01,2013-06-26 05:12:00,
2013-06-26 00:13:00,79.9,57.3,29.72,SSE,161,10.5,10.5,46,0.00,,CLR,0.00,VWS V14.01,2013-06-26 05:13:00,
2013-06-26 00:14:00,79.9,57.3,29.72,South,185,10.1,10.5,46,0.00,,CLR,0.00,VWS V14.01,2013-06-26 05:14:00,
2013-06-26 00:17:00,79.9,56.0,29.72,South,190,8.7,8.7,44,0.00,,CLR,0.00,VWS V14.01,2013-06-26 05:17:00,
2013-06-26 00:19:00,80.1,56.2,29.72,SE,133,12.8,12.8,44,0.00,,CLR,0.00,VWS V14.01,2013-06-26 05:19:00,
2013-06-26 00:21:00,80.1,56.2,29.72,South,176,7.6,11.0,44,0.00,,CLR,0.00,VWS V14.01,2013-06-26 05:21:00,
2013-06-26 00:22:00,80.1,56.2,29.72,SSE,151,11.4,11.4,44,0.00,,CLR,0.00,VWS V14.01,2013-06-26 05:22:00,
2013-06-26 00:23:00,80.1,56.2,29.72,South,176,8.7,10.1,44,0.00,,CLR,0.00,VWS V14.01,2013-06-26 05:23:00,
2013-06-26 00:24:00,80.1,56.2,29.72,South,189,11.0,11.0,44,0.00,,CLR,0.00,VWS V14.01,2013-06-26 05:24:00,
2013-06-26 00:25:00,80.1,56.2,29.72,SSE,164,8.7,8.7,44,0.00,,CLR,0.00,VWS V14.01,2013-06-26 05:25:00,
2013-06-26 00:28:00,80.1,56.2,29.72,South,187,10.5,10.5,44,0.00,,CLR,0.00,VWS V14.01,2013-06-26 05:28:00,
2013-06-26 00:29:00,79.9,56.0,29.72,SSE,164,8.3,10.5,44,0.00,,CLR,0.00,VWS V14.01,2013-06-26 05:29:00,
2013-06-26 00:30:00,79.9,56.0,29.72,South,190,10.1,10.1,44,0.00,,CLR,0.00,VWS V14.01,2013-06-26 05:30:00,
2013-06-26 00:31:00,79.9,56.0,29.72,South,171,10.5,10.5,44,0.00,,CLR,0.00,VWS V14.01,2013-06-26 05:31:00,
2013-06-26 00:34:00,79.9,56.0,29.72,South,185,12.3,12.3,44,0.00,,CLR,0.00,VWS V14.01,2013-06-26 05:34:00,
2013-06-26 00:35:00,79.9,56.0,29.72,SSW,213,6.3,10.1,44,0.00,,CLR,0.00,VWS V14.01,2013-06-26 05:35:00,
2013-06-26 00:36:00,79.9,56.0,29.72,South,185,8.7,12.3,44,0.00,,CLR,0.00,VWS V14.01,2013-06-26 05:36:00,
2013-06-26 00:37:00,79.9,56.0,29.72,SSE,151,11.0,13.2,44,0.00,,CLR,0.00,VWS V14.01,2013-06-26 05:37:00,
2013-06-26 00:39:00,79.9,56.0,29.72,SSE,150,10.1,12.8,44,0.00,,CLR,0.00,VWS V14.01,2013-06-26 05:39:00,
2013-06-26 00:41:00,79.9,54.8,29.70,SSW,202,10.5,12.3,42,0.00,,CLR,0.00,VWS V14.01,2013-06-26 05:41:00,
2013-06-26 00:42:00,79.9,54.8,29.70,SSE,166,10.5,10.5,42,0.00,,CLR,0.00,VWS V14.01,2013-06-26 05:42:00,
2013-06-26 00:44:00,79.7,54.6,29.70,SE,141,4.9,8.1,42,0.00,,CLR,0.00,VWS V14.01,2013-06-26 05:44:00,
2013-06-26 00:46:00,79.9,54.8,29.70,SE,133,14.1,14.1,42,0.00,,CLR,0.00,VWS V14.01,2013-06-26 05:46:00,
2013-06-26 00:47:00,79.9,54.8,29.70,South,178,11.0,11.0,42,0.00,,CLR,0.00,VWS V14.01,2013-06-26 05:47:00,
2013-06-26 00:49:00,79.9,54.8,29.70,South,186,10.1,10.1,42,0.00,,CLR,0.00,VWS V14.01,2013-06-26 05:49:00,
2013-06-26 00:50:00,79.7,54.6,29.70,SSE,166,8.1,11.0,42,0.00,,CLR,0.00,VWS V14.01,2013-06-26 05:50:00,
2013-06-26 00:51:00,79.7,54.6,29.70,South,177,13.2,13.2,42,0.00,,CLR,0.00,VWS V14.01,2013-06-26 05:51:00,
2013-06-26 00:53:00,79.7,54.6,29.70,South,190,7.6,8.1,42,0.00,,CLR,0.00,VWS V14.01,2013-06-26 05:53:00,
2013-06-26 00:55:00,79.7,54.6,29.70,SSW,200,11.0,11.0,42,0.00,,CLR,0.00,VWS V14.01,2013-06-26 05:55:00,
2013-06-26 00:56:00,79.7,54.6,29.70,SSW,194,10.1,11.0,42,0.00,,CLR,0.00,VWS V14.01,2013-06-26 05:56:00,
2013-06-26 00:59:00,79.7,54.6,29.70,South,181,10.5,12.8,42,0.00,,CLR,0.00,VWS V14.01,2013-06-26 05:59:00,
2013-06-26 01:01:00,79.5,54.4,29.70,SSE,165,7.6,12.3,42,0.00,,CLR,0.00,VWS V14.01,2013-06-26 06:01:00,
2013-06-26 01:02:00,79.5,54.4,29.70,South,169,10.1,13.2,42,0.00,,CLR,0.00,VWS V14.01,2013-06-26 06:02:00,
2013-06-26 01:04:00,79.5,54.4,29.70,SSE,164,10.1,10.1,42,0.00,,CLR,0.00,VWS V14.01,2013-06-26 06:04:00,
2013-06-26 01:06:00,79.5,54.4,29.70,SSW,196,14.5,14.5,42,0.00,,CLR,0.00,VWS V14.01,2013-06-26 06:06:00,
2013-06-26 01:07:00,79.5,54.4,29.70,South,171,12.8,12.8,42,0.00,,CLR,0.00,VWS V14.01,2013-06-26 06:07:00,
2013-06-26 01:10:00,79.5,54.4,29.70,South,177,13.2,13.2,42,0.00,,CLR,0.00,VWS V14.01,2013-06-26 06:10:00,
2013-06-26 01:11:00,79.5,54.4,29.70,SSE,168,12.3,12.3,42,0.00,,CLR,0.00,VWS V14.01,2013-06-26 06:11:00,
2013-06-26 01:13:00,79.5,54.4,29.70,SSW,205,9.6,12.3,42,0.00,,CLR,0.00,VWS V14.01,2013-06-26 06:13:00,
2013-06-26 01:14:00,79.5,54.4,29.70,SSW,205,9.6,12.3,42,0.00,,CLR,0.00,VWS V14.01,2013-06-26 06:14:00,
2013-06-26 01:15:00,79.5,54.4,29.70,South,178,10.1,10.5,42,0.00,,CLR,0.00,VWS V14.01,2013-06-26 06:15:00,
2013-06-26 01:16:00,79.5,54.4,29.70,South,175,9.6,9.6,42,0.00,,CLR,0.00,VWS V14.01,2013-06-26 06:16:00,
2013-06-26 01:19:00,79.3,54.3,29.70,South,182,8.3,10.5,42,0.00,,CLR,0.00,VWS V14.01,2013-06-26 06:19:00,
2013-06-26 01:20:00,79.3,54.3,29.70,SSE,160,10.1,10.1,42,0.00,,CLR,0.00,VWS V14.01,2013-06-26 06:20:00,
2013-06-26 01:21:00,79.3,54.3,29.70,South,189,14.1,14.1,42,0.00,,CLR,0.00,VWS V14.01,2013-06-26 06:21:00,
2013-06-26 01:22:00,79.3,54.3,29.70,SSE,150,12.3,12.3,42,0.00,,CLR,0.00,VWS V14.01,2013-06-26 06:22:00,
2013-06-26 01:25:00,79.2,54.1,29.70,SSE,150,10.1,10.5,42,0.00,,CLR,0.00,VWS V14.01,2013-06-26 06:25:00,
2013-06-26 01:26:00,79.2,54.1,29.67,SSE,160,7.6,10.1,42,0.00,,CLR,0.00,VWS V14.01,2013-06-26 06:26:00,
2013-06-26 01:27:00,79.2,54.1,29.67,South,177,11.0,11.0,42,0.00,,CLR,0.00,VWS V14.01,2013-06-26 06:27:00,
2013-06-26 01:30:00,79.2,54.1,29.67,SSW,201,8.3,10.1,42,0.00,,CLR,0.00,VWS V14.01,2013-06-26 06:30:00,
2013-06-26 01:32:00,79.0,54.0,29.67,SSW,200,10.5,10.5,42,0.00,,CLR,0.00,VWS V14.01,2013-06-26 06:32:00,
2013-06-26 01:35:00,78.8,53.8,29.67,South,171,7.6,7.6,42,0.00,,CLR,0.00,VWS V14.01,2013-06-26 06:35:00,
2013-06-26 01:36:00,78.8,53.8,29.67,South,184,8.3,8.7,42,0.00,,CLR,0.00,VWS V14.01,2013-06-26 06:36:00,
2013-06-26 01:37:00,78.8,53.8,29.67,SSW,195,10.1,10.1,42,0.00,,CLR,0.00,VWS V14.01,2013-06-26 06:37:00,
2013-06-26 01:38:00,78.8,53.8,29.67,South,177,8.1,11.0,42,0.00,,CLR,0.00,VWS V14.01,2013-06-26 06:38:00,
2013-06-26 01:40:00,78.8,55.1,29.67,South,171,10.1,10.1,44,0.00,,CLR,0.00,VWS V14.01,2013-06-26 06:40:00,
2013-06-26 01:42:00,78.8,55.1,29.70,SSE,168,7.6,7.6,44,0.00,,CLR,0.00,VWS V14.01,2013-06-26 06:42:00,
2013-06-26 01:43:00,78.8,55.1,29.70,South,177,8.7,8.7,44,0.00,,CLR,0.00,VWS V14.01,2013-06-26 06:43:00,
2013-06-26 01:44:00,78.8,55.1,29.70,SE,138,8.3,12.3,44,0.00,,CLR,0.00,VWS V14.01,2013-06-26 06:44:00,
2013-06-26 01:45:00,78.8,55.1,29.70,SSE,154,7.6,8.7,44,0.00,,CLR,0.00,VWS V14.01,2013-06-26 06:45:00,
2013-06-26 01:48:00,78.8,55.1,29.70,SSE,151,8.3,10.1,44,0.00,,CLR,0.00,VWS V14.01,2013-06-26 06:48:00,
2013-06-26 01:49:00,78.8,55.1,29.70,South,179,8.1,11.0,44,0.00,,CLR,0.00,VWS V14.01,2013-06-26 06:49:00,
2013-06-26 01:53:00,78.6,54.9,29.70,SSE,166,8.1,8.1,44,0.00,,CLR,0.00,VWS V14.01,2013-06-26 06:53:00,
2013-06-26 01:54:00,78.6,54.9,29.70,South,180,8.7,8.7,44,0.00,,CLR,0.00,VWS V14.01,2013-06-26 06:54:00,
2013-06-26 01:58:00,78.6,54.9,29.67,South,177,9.6,9.6,44,0.00,,CLR,0.00,VWS V14.01,2013-06-26 06:58:00,
2013-06-26 01:59:00,78.4,54.7,29.67,South,176,5.8,11.0,44,0.00,,CLR,0.00,VWS V14.01,2013-06-26 06:59:00,
2013-06-26 02:00:00,78.4,54.7,29.67,South,179,7.6,11.0,44,0.00,,CLR,0.00,VWS V14.01,2013-06-26 07:00:00,
2013-06-26 02:03:00,78.6,54.9,29.67,SSE,158,8.7,8.7,44,0.00,,CLR,0.00,VWS V14.01,2013-06-26 07:03:00,
2013-06-26 02:04:00,78.6,54.9,29.67,SSE,155,8.1,10.5,44,0.00,,CLR,0.00,VWS V14.01,2013-06-26 07:04:00,
2013-06-26 02:05:00,78.6,54.9,29.67,SSW,212,11.9,11.9,44,0.00,,CLR,0.00,VWS V14.01,2013-06-26 07:05:00,
2013-06-26 02:09:00,78.6,54.9,29.67,South,185,6.3,11.0,44,0.00,,CLR,0.00,VWS V14.01,2013-06-26 07:09:00,
2013-06-26 02:10:00,78.6,54.9,29.67,SSE,166,10.5,10.5,44,0.00,,CLR,0.00,VWS V14.01,2013-06-26 07:10:00,
2013-06-26 02:11:00,78.6,54.9,29.67,South,169,5.8,5.8,44,0.00,,CLR,0.00,VWS V14.01,2013-06-26 07:11:00,
2013-06-26 02:14:00,78.4,54.7,29.67,SSE,164,5.8,10.1,44,0.00,,CLR,0.00,VWS V14.01,2013-06-26 07:14:00,
2013-06-26 02:15:00,78.4,54.7,29.67,SSE,162,7.6,7.6,44,0.00,,CLR,0.00,VWS V14.01,2013-06-26 07:15:00,
2013-06-26 02:17:00,78.4,54.7,29.67,South,181,8.7,11.0,44,0.00,,CLR,0.00,VWS V14.01,2013-06-26 07:17:00,
2013-06-26 02:20:00,78.4,53.5,29.67,South,180,8.1,8.1,42,0.00,,CLR,0.00,VWS V14.01,2013-06-26 07:20:00,
2013-06-26 02:21:00,78.4,54.7,29.67,South,176,8.7,10.5,44,0.00,,CLR,0.00,VWS V14.01,2013-06-26 07:21:00,
2013-06-26 02:22:00,78.4,54.7,29.67,South,175,8.3,8.3,44,0.00,,CLR,0.00,VWS V14.01,2013-06-26 07:22:00,
2013-06-26 02:25:00,78.4,54.7,29.67,South,183,5.8,7.6,44,0.00,,CLR,0.00,VWS V14.01,2013-06-26 07:25:00,
2013-06-26 02:26:00,78.4,54.7,29.70,South,177,7.6,7.6,44,0.00,,CLR,0.00,VWS V14.01,2013-06-26 07:26:00,
2013-06-26 02:27:00,78.4,54.7,29.70,SSW,198,10.5,10.5,44,0.00,,CLR,0.00,VWS V14.01,2013-06-26 07:27:00,
2013-06-26 02:28:00,78.4,54.7,29.70,South,178,10.5,10.5,44,0.00,,CLR,0.00,VWS V14.01,2013-06-26 07:28:00,
2013-06-26 02:30:00,78.6,53.6,29.70,South,173,6.7,8.3,42,0.00,,CLR,0.00,VWS V14.01,2013-06-26 07:30:00,
2013-06-26 02:31:00,78.6,54.9,29.70,South,182,7.6,7.6,44,0.00,,CLR,0.00,VWS V14.01,2013-06-26 07:31:00,
2013-06-26 02:32:00,78.6,53.6,29.70,SSW,197,10.1,10.1,42,0.00,,CLR,0.00,VWS V14.01,2013-06-26 07:32:00,
2013-06-26 02:33:00,78.6,53.6,29.70,South,174,10.1,10.5,42,0.00,,CLR,0.00,VWS V14.01,2013-06-26 07:33:00,
2013-06-26 02:36:00,78.6,53.6,29.70,South,189,11.0,11.0,42,0.00,,CLR,0.00,VWS V14.01,2013-06-26 07:36:00,
2013-06-26 02:37:00,78.4,53.5,29.70,South,172,8.7,8.7,42,0.00,,CLR,0.00,VWS V14.01,2013-06-26 07:37:00,
2013-06-26 02:38:00,78.4,53.5,29.70,SSW,201,6.3,10.5,42,0.00,,CLR,0.00,VWS V14.01,2013-06-26 07:38:00,
2013-06-26 02:39:00,78.4,53.5,29.70,SSE,151,7.6,10.5,42,0.00,,CLR,0.00,VWS V14.01,2013-06-26 07:39:00,
2013-06-26 02:42:00,78.4,53.5,29.67,South,178,8.1,9.2,42,0.00,,CLR,0.00,VWS V14.01,2013-06-26 07:42:00,
2013-06-26 02:43:00,78.4,53.5,29.67,SSW,193,8.7,10.1,42,0.00,,CLR,0.00,VWS V14.01,2013-06-26 07:43:00,
2013-06-26 02:44:00,78.4,54.7,29.67,South,173,7.2,7.6,44,0.00,,CLR,0.00,VWS V14.01,2013-06-26 07:44:00,
2013-06-26 02:47:00,78.4,53.5,29.67,South,178,5.4,8.1,42,0.00,,CLR,0.00,VWS V14.01,2013-06-26 07:47:00,
2013-06-26 02:48:00,78.4,53.5,29.67,SSE,165,5.8,5.8,42,0.00,,CLR,0.00,VWS V14.01,2013-06-26 07:48:00,
2013-06-26 02:49:00,78.4,53.5,29.67,South,190,8.3,8.3,42,0.00,,CLR,0.00,VWS V14.01,2013-06-26 07:49:00,
2013-06-26 02:51:00,78.3,53.3,29.67,SSE,167,8.1,10.1,42,0.00,,CLR,0.00,VWS V14.01,2013-06-26 07:51:00,
2013-06-26 02:52:00,78.3,53.3,29.67,South,179,9.6,9.6,42,0.00,,CLR,0.00,VWS V14.01,2013-06-26 07:52:00,
2013-06-26 02:54:00,78.3,54.6,29.67,South,171,8.3,8.7,44,0.00,,CLR,0.00,VWS V14.01,2013-06-26 07:54:00,
2013-06-26 02:55:00,78.3,54.6,29.67,South,175,10.1,10.1,44,0.00,,CLR,0.00,VWS V14.01,2013-06-26 07:55:00,
2013-06-26 02:56:00,78.3,54.6,29.67,SE,138,10.5,10.5,44,0.00,,CLR,0.00,VWS V14.01,2013-06-26 07:56:00,
2013-06-26 02:57:00,78.3,54.6,29.67,SSW,196,10.1,10.1,44,0.00,,CLR,0.00,VWS V14.01,2013-06-26 07:57:00,
2013-06-26 02:59:00,78.3,54.6,29.67,South,175,6.3,8.7,44,0.00,,CLR,0.00,VWS V14.01,2013-06-26 07:59:00,
2013-06-26 03:00:00,78.3,54.6,29.67,SE,141,8.1,8.1,44,0.00,,CLR,0.00,VWS V14.01,2013-06-26 08:00:00,
2013-06-26 03:02:00,78.3,53.3,29.67,SSE,168,10.5,10.5,42,0.00,,CLR,0.00,VWS V14.01,2013-06-26 08:02:00,
2013-06-26 03:03:00,78.3,53.3,29.67,South,179,7.6,7.6,42,0.00,,,0.00,VWS V14.01,2013-06-26 08:03:00,
2013-06-26 03:05:00,78.3,54.6,29.67,SSE,162,10.1,10.1,44,0.00,,,0.00,VWS V14.01,2013-06-26 08:05:00,
2013-06-26 03:07:00,78.1,54.4,29.67,South,182,6.3,6.3,44,0.00,,,0.00,VWS V14.01,2013-06-26 08:07:00,
2013-06-26 03:08:00,78.1,54.4,29.67,South,185,5.8,6.3,44,0.00,,,0.00,VWS V14.01,2013-06-26 08:08:00,
2013-06-26 03:10:00,78.1,54.4,29.67,SE,137,8.7,8.7,44,0.00,,,0.00,VWS V14.01,2013-06-26 08:10:00,
2013-06-26 03:12:00,78.1,54.4,29.67,South,169,4.9,7.6,44,0.00,,,0.00,VWS V14.01,2013-06-26 08:12:00,
2013-06-26 03:13:00,78.1,54.4,29.67,SSE,168,7.2,8.1,44,0.00,,,0.00,VWS V14.01,2013-06-26 08:13:00,
2013-06-26 03:14:00,78.1,54.4,29.67,South,178,6.3,7.6,44,0.00,,,0.00,VWS V14.01,2013-06-26 08:14:00,
2013-06-26 03:15:00,78.1,54.4,29.67,South,185,5.4,8.1,44,0.00,,,0.00,VWS V14.01,2013-06-26 08:15:00,
2013-06-26 03:16:00,77.9,54.3,29.67,SSW,194,8.3,8.3,44,0.00,,,0.00,VWS V14.01,2013-06-26 08:16:00,
2013-06-26 03:18:00,77.9,54.3,29.67,SSW,211,8.1,10.1,44,0.00,,,0.00,VWS V14.01,2013-06-26 08:18:00,
2013-06-26 03:19:00,77.9,54.3,29.67,South,174,5.8,9.2,44,0.00,,,0.00,VWS V14.01,2013-06-26 08:19:00,
2013-06-26 03:20:00,77.9,54.3,29.67,South,169,8.3,8.7,44,0.00,,,0.00,VWS V14.01,2013-06-26 08:20:00,
2013-06-26 03:23:00,77.9,54.3,29.67,South,183,8.1,8.1,44,0.00,,,0.00,VWS V14.01,2013-06-26 08:23:00,
2013-06-26 03:24:00,77.9,54.3,29.67,South,190,8.7,8.7,44,0.00,,,0.00,VWS V14.01,2013-06-26 08:24:00,
2013-06-26 03:25:00,77.9,54.3,29.67,South,185,10.1,10.1,44,0.00,,,0.00,VWS V14.01,2013-06-26 08:25:00,
2013-06-26 03:26:00,77.9,55.5,29.67,South,182,8.3,10.1,46,0.00,,,0.00,VWS V14.01,2013-06-26 08:26:00,
2013-06-26 03:29:00,77.7,55.3,29.67,SW,217,8.7,8.7,46,0.00,,,0.00,VWS V14.01,2013-06-26 08:29:00,
2013-06-26 03:30:00,77.7,55.3,29.67,SSW,209,6.3,8.7,46,0.00,,,0.00,VWS V14.01,2013-06-26 08:30:00,
2013-06-26 03:31:00,77.7,55.3,29.67,SSW,212,5.4,8.1,46,0.00,,,0.00,VWS V14.01,2013-06-26 08:31:00,
2013-06-26 03:32:00,77.7,55.3,29.67,South,176,6.3,8.3,46,0.00,,,0.00,VWS V14.01,2013-06-26 08:32:00,
2013-06-26 03:35:00,77.5,55.2,29.67,SSW,196,4.0,5.4,46,0.00,,-RA,0.00,VWS V14.01,2013-06-26 08:35:00,
2013-06-26 03:36:00,77.5,56.3,29.67,WSW,240,6.3,7.6,48,0.00,,-RA,0.00,VWS V14.01,2013-06-26 08:36:00,
2013-06-26 03:37:00,77.4,56.2,29.67,SW,232,8.7,8.7,48,0.00,,-RA,0.00,VWS V14.01,2013-06-26 08:37:00,
2013-06-26 03:38:00,77.4,56.2,29.67,SSW,211,6.3,7.6,48,0.00,,-RA,0.00,VWS V14.01,2013-06-26 08:38:00,
2013-06-26 03:40:00,77.4,56.2,29.67,SW,220,11.0,15.0,48,0.00,,-RA,0.00,VWS V14.01,2013-06-26 08:40:00,
2013-06-26 03:42:00,77.4,56.2,29.70,WSW,238,17.0,17.0,48,0.00,,-RA,0.00,VWS V14.01,2013-06-26 08:42:00,
2013-06-26 03:43:00,77.2,56.0,29.70,SSW,209,20.6,20.6,48,0.00,,-RA,0.00,VWS V14.01,2013-06-26 08:43:00,
2013-06-26 03:44:00,77.2,56.0,29.70,SSW,204,12.3,20.6,48,0.00,,-RA,0.00,VWS V14.01,2013-06-26 08:44:00,
2013-06-26 03:45:00,77.2,56.0,29.70,SW,227,11.0,12.8,48,0.00,,-RA,0.00,VWS V14.01,2013-06-26 08:45:00,
2013-06-26 03:47:00,77.2,56.0,29.70,SSW,206,10.1,10.1,48,0.00,,-RA,0.00,VWS V14.01,2013-06-26 08:47:00,
2013-06-26 03:48:00,77.2,56.0,29.70,SW,221,8.7,11.4,48,0.00,,-RA,0.00,VWS V14.01,2013-06-26 08:48:00,
2013-06-26 03:49:00,77.2,57.1,29.70,WSW,244,10.5,10.5,50,0.00,,-RA,0.00,VWS V14.01,2013-06-26 08:49:00,
2013-06-26 03:51:00,76.8,56.8,29.70,SW,236,15.4,15.4,50,0.00,,-RA,0.00,VWS V14.01,2013-06-26 08:51:00,
2013-06-26 03:52:00,76.8,56.8,29.70,WSW,250,4.9,8.1,50,0.00,,-RA,0.00,VWS V14.01,2013-06-26 08:52:00,
2013-06-26 03:53:00,76.6,56.6,29.70,South,183,5.4,5.4,50,0.00,,-RA,0.00,VWS V14.01,2013-06-26 08:53:00,
2013-06-26 03:54:00,76.5,57.5,29.70,SW,217,3.6,4.9,52,0.00,,-RA,0.00,VWS V14.01,2013-06-26 08:54:00,
2013-06-26 03:55:00,76.5,57.5,29.70,SSW,205,2.7,3.1,52,0.00,,-RA,0.00,VWS V14.01,2013-06-26 08:55:00,
2013-06-26 03:57:00,76.1,58.3,29.67,SW,219,8.3,12.3,54,0.00,,-RA,0.00,VWS V14.01,2013-06-26 08:57:00,
2013-06-26 03:59:00,75.9,59.1,29.67,South,186,6.3,6.3,56,0.00,,-RA,0.00,VWS V14.01,2013-06-26 08:59:00,
2013-06-26 04:00:00,75.7,59.0,29.67,South,181,13.2,13.2,56,0.00,,-RA,0.00,VWS V14.01,2013-06-26 09:00:00,
2013-06-26 04:03:00,75.6,59.8,29.67,South,175,5.8,8.3,58,0.00,,-RA,0.00,VWS V14.01,2013-06-26 09:03:00,
2013-06-26 04:05:00,75.4,59.6,29.67,SSE,162,13.2,13.2,58,0.00,,-RA,0.00,VWS V14.01,2013-06-26 09:05:00,
2013-06-26 04:06:00,75.2,56.4,29.67,WSW,248,10.5,15.4,52,0.00,,-RA,0.00,VWS V14.01,2013-06-26 09:06:00,
2013-06-26 04:08:00,75.0,57.3,29.67,WSW,243,10.1,12.3,54,0.00,,-RA,0.00,VWS V14.01,2013-06-26 09:08:00,
2013-06-26 04:09:00,75.0,57.3,29.67,SW,233,10.5,11.0,54,0.00,,-RA,0.00,VWS V14.01,2013-06-26 09:09:00,
2013-06-26 04:10:00,74.7,55.9,29.67,SW,231,8.7,12.8,52,0.00,,-RA,0.00,VWS V14.01,2013-06-26 09:10:00,
2013-06-26 04:11:00,74.7,55.9,29.67,SW,222,8.3,8.7,52,0.00,,-RA,0.00,VWS V14.01,2013-06-26 09:11:00,
2013-06-26 04:14:00,74.3,55.6,29.67,WSW,237,8.3,10.1,52,0.00,,-RA,0.00,VWS V14.01,2013-06-26 09:14:00,
2013-06-26 04:15:00,74.3,55.6,29.67,WSW,248,8.1,10.1,52,0.00,,-RA,0.00,VWS V14.01,2013-06-26 09:15:00,
2013-06-26 04:16:00,74.1,56.4,29.67,SW,226,12.3,12.3,54,0.00,,-RA,0.00,VWS V14.01,2013-06-26 09:16:00,
2013-06-26 04:17:00,74.1,56.4,29.67,SW,225,8.3,12.3,54,0.00,,-RA,0.00,VWS V14.01,2013-06-26 09:17:00,
2013-06-26 04:21:00,73.8,57.1,29.67,SW,227,6.3,6.3,56,0.00,,-RA,0.00,VWS V14.01,2013-06-26 09:21:00,
2013-06-26 04:22:00,73.8,58.1,29.67,SW,217,8.7,9.6,58,0.00,,-RA,0.00,VWS V14.01,2013-06-26 09:22:00,
2013-06-26 04:26:00,73.4,60.5,29.67,South,186,9.6,10.5,64,0.00,,-RA,0.00,VWS V14.01,2013-06-26 09:26:00,
2013-06-26 04:27:00,73.2,60.3,29.67,SE,125,6.3,9.6,64,0.00,,-RA,0.00,VWS V14.01,2013-06-26 09:27:00,
2013-06-26 04:28:00,73.2,60.3,29.67,South,184,8.3,8.3,64,0.00,,-RA,0.00,VWS V14.01,2013-06-26 09:28:00,
2013-06-26 04:31:00,73.2,60.3,29.67,South,189,7.6,8.7,64,0.00,,-RA,0.00,VWS V14.01,2013-06-26 09:31:00,
2013-06-26 04:32:00,73.0,60.2,29.67,SW,224,5.8,8.7,64,0.00,,-RA,0.00,VWS V14.01,2013-06-26 09:32:00,
2013-06-26 04:33:00,73.0,60.2,29.67,SSW,209,6.3,8.7,64,0.00,,-RA,0.00,VWS V14.01,2013-06-26 09:33:00,
2013-06-26 04:35:00,72.9,60.0,29.67,SSW,202,5.8,11.9,64,0.00,,-RA,0.00,VWS V14.01,2013-06-26 09:35:00,
2013-06-26 04:37:00,72.9,59.1,29.67,SW,228,6.3,7.6,62,0.00,,-RA,0.00,VWS V14.01,2013-06-26 09:37:00,
2013-06-26 04:38:00,72.9,59.1,29.67,South,187,10.1,10.1,62,0.00,,-RA,0.00,VWS V14.01,2013-06-26 09:38:00,
2013-06-26 04:40:00,72.7,57.1,29.67,SSE,168,6.7,10.1,58,0.00,,-RA,0.00,VWS V14.01,2013-06-26 09:40:00,
2013-06-26 04:42:00,72.7,57.1,29.67,SSW,207,9.2,10.1,58,0.00,,-RA,0.00,VWS V14.01,2013-06-26 09:42:00,
2013-06-26 04:43:00,72.7,57.1,29.67,South,185,11.0,11.0,58,0.00,,-RA,0.00,VWS V14.01,2013-06-26 09:43:00,
2013-06-26 04:44:00,72.5,55.9,29.67,SW,221,6.7,12.3,56,0.00,,-RA,0.00,VWS V14.01,2013-06-26 09:44:00,
2013-06-26 04:45:00,72.5,56.9,29.67,SSW,199,8.3,8.3,58,0.00,,-RA,0.00,VWS V14.01,2013-06-26 09:45:00,
2013-06-26 04:48:00,72.5,56.9,29.67,SSW,192,5.8,8.1,58,0.00,,-RA,0.00,VWS V14.01,2013-06-26 09:48:00,
2013-06-26 04:49:00,72.3,56.7,29.67,SSW,206,5.4,6.3,58,0.00,,-RA,0.00,VWS V14.01,2013-06-26 09:49:00,
2013-06-26 04:50:00,72.3,56.7,29.67,SW,229,5.4,7.6,58,0.00,,-RA,0.00,VWS V14.01,2013-06-26 09:50:00,
2013-06-26 04:53:00,72.0,56.4,29.67,SW,222,8.3,11.0,58,0.00,,-RA,0.00,VWS V14.01,2013-06-26 09:53:00,
2013-06-26 04:54:00,72.0,56.4,29.67,SSW,196,6.3,8.3,58,0.00,,-RA,0.00,VWS V14.01,2013-06-26 09:54:00,
2013-06-26 04:56:00,72.0,57.3,29.70,South,175,7.6,8.7,60,0.00,,-RA,0.00,VWS V14.01,2013-06-26 09:56:00,
2013-06-26 04:57:00,71.8,57.2,29.70,SW,222,5.8,8.3,60,0.00,,-RA,0.00,VWS V14.01,2013-06-26 09:57:00,
2013-06-26 04:59:00,71.8,56.2,29.70,SW,235,10.5,10.5,58,0.00,,-RA,0.00,VWS V14.01,2013-06-26 09:59:00,
2013-06-26 05:01:00,71.8,56.2,29.70,SSW,207,8.7,8.7,58,0.00,,-RA,0.00,VWS V14.01,2013-06-26 10:01:00,
2013-06-26 05:03:00,71.6,55.1,29.70,SSW,196,8.3,8.3,56,0.00,,-RA,0.00,VWS V14.01,2013-06-26 10:03:00,
2013-06-26 05:04:00,71.6,54.1,29.70,SSW,203,10.1,12.3,54,0.00,,-RA,0.00,VWS V14.01,2013-06-26 10:04:00,
2013-06-26 05:05:00,71.6,53.1,29.70,SSW,211,8.3,9.6,52,0.00,,-RA,0.00,VWS V14.01,2013-06-26 10:05:00,
2013-06-26 05:08:00,71.6,50.9,29.70,SSW,194,10.5,12.8,48,0.00,,-RA,0.00,VWS V14.01,2013-06-26 10:08:00,
2013-06-26 05:09:00,71.6,50.9,29.70,South,189,7.6,7.6,48,0.00,,-RA,0.00,VWS V14.01,2013-06-26 10:09:00,
2013-06-26 05:10:00,71.6,50.9,29.70,South,189,7.6,7.6,48,0.00,,-RA,0.00,VWS V14.01,2013-06-26 10:10:00,
2013-06-26 05:11:00,71.6,52.0,29.70,South,169,6.3,8.1,50,0.00,,-RA,0.00,VWS V14.01,2013-06-26 10:11:00,
2013-06-26 05:13:00,71.6,53.1,29.67,South,177,8.3,8.3,52,0.00,,-RA,0.00,VWS V14.01,2013-06-26 10:13:00,
2013-06-26 05:15:00,71.4,51.8,29.67,South,190,7.2,7.2,50,0.00,,-RA,0.00,VWS V14.01,2013-06-26 10:15:00,
2013-06-26 05:16:00,71.4,51.8,29.67,South,178,6.7,7.6,50,0.00,,-RA,0.00,VWS V14.01,2013-06-26 10:16:00,
2013-06-26 05:18:00,71.4,51.8,29.67,SSW,192,8.7,8.7,50,0.00,,-RA,0.00,VWS V14.01,2013-06-26 10:18:00,
2013-06-26 05:20:00,71.4,51.8,29.67,South,191,5.8,5.8,50,0.00,,-RA,0.00,VWS V14.01,2013-06-26 10:20:00,
2013-06-26 05:21:00,71.4,51.8,29.67,SSE,154,6.3,6.3,50,0.00,,-RA,0.00,VWS V14.01,2013-06-26 10:21:00,
2013-06-26 05:23:00,71.2,49.4,29.67,SSE,159,8.3,8.7,46,0.00,,-RA,0.00,VWS V14.01,2013-06-26 10:23:00,
2013-06-26 05:25:00,71.4,49.6,29.67,South,179,8.3,10.1,46,0.00,,-RA,0.00,VWS V14.01,2013-06-26 10:25:00,
2013-06-26 05:26:00,71.6,48.6,29.67,South,181,10.5,10.5,44,0.00,,-RA,0.00,VWS V14.01,2013-06-26 10:26:00,
2013-06-26 05:27:00,71.6,48.6,29.67,SSE,148,10.5,10.5,44,0.00,,-RA,0.00,VWS V14.01,2013-06-26 10:27:00,
2013-06-26 05:29:00,71.6,48.6,29.67,SSW,192,8.7,8.7,44,0.00,,-RA,0.00,VWS V14.01,2013-06-26 10:29:00,
2013-06-26 05:31:00,71.8,48.7,29.67,SSE,164,8.7,10.5,44,0.00,,-RA,0.00,VWS V14.01,2013-06-26 10:31:00,
2013-06-26 05:32:00,71.8,48.7,29.67,SSE,154,13.2,13.2,44,0.00,,SCT020,0.00,VWS V14.01,2013-06-26 10:32:00,
2013-06-26 05:34:00,72.0,47.6,29.67,SSW,201,8.7,8.7,42,0.00,,SCT020,0.00,VWS V14.01,2013-06-26 10:34:00,
2013-06-26 05:35:00,72.0,47.6,29.67,SSE,149,8.7,10.5,42,0.00,,SCT020,0.00,VWS V14.01,2013-06-26 10:35:00,
2013-06-26 05:37:00,72.0,47.6,29.67,SSE,166,3.6,8.7,42,0.00,,SCT020,0.00,VWS V14.01,2013-06-26 10:37:00,
2013-06-26 05:40:00,71.8,44.8,29.67,SE,135,11.9,12.8,38,0.00,,SCT020,0.00,VWS V14.01,2013-06-26 10:40:00,
2013-06-26 05:41:00,71.8,44.8,29.67,SSE,159,10.5,10.5,38,0.00,,SCT020,0.00,VWS V14.01,2013-06-26 10:41:00,
2013-06-26 05:43:00,71.8,44.8,29.67,South,175,7.6,10.5,38,0.00,,SCT020,0.00,VWS V14.01,2013-06-26 10:43:00,
2013-06-26 05:44:00,71.8,47.5,29.67,SSE,168,10.5,10.5,42,0.00,,SCT020,0.00,VWS V14.01,2013-06-26 10:44:00,
2013-06-26 05:45:00,71.8,47.5,29.67,SSE,152,4.0,10.5,42,0.00,,SCT020,0.00,VWS V14.01,2013-06-26 10:45:00,
2013-06-26 05:46:00,71.8,47.5,29.67,South,170,6.3,8.7,42,0.00,,SCT020,0.00,VWS V14.01,2013-06-26 10:46:00,
2013-06-26 05:49:00,71.6,47.3,29.67,SSE,163,3.1,7.2,42,0.00,,SCT020,0.00,VWS V14.01,2013-06-26 10:49:00,
2013-06-26 05:50:00,71.6,47.3,29.67,South,169,6.7,6.7,42,0.00,,SCT020,0.00,VWS V14.01,2013-06-26 10:50:00,
2013-06-26 05:51:00,71.4,48.4,29.67,SSE,149,3.1,10.5,44,0.00,,SCT020,0.00,VWS V14.01,2013-06-26 10:51:00,
2013-06-26 05:52:00,71.4,48.4,29.67,South,190,5.8,5.8,44,0.00,,SCT020,0.00,VWS V14.01,2013-06-26 10:52:00,
2013-06-26 05:54:00,71.4,48.4,29.67,SE,142,5.8,8.3,44,0.00,,SCT020,0.00,VWS V14.01,2013-06-26 10:54:00,
2013-06-26 05:55:00,71.4,48.4,29.67,SSE,164,7.6,7.6,44,0.00,,SCT020,0.00,VWS V14.01,2013-06-26 10:55:00,
2013-06-26 05:56:00,71.2,48.2,29.67,SE,146,6.3,8.7,44,0.00,,SCT020,0.00,VWS V14.01,2013-06-26 10:56:00,
2013-06-26 05:57:00,71.2,48.2,29.67,South,172,7.6,7.6,44,0.00,,SCT020,0.00,VWS V14.01,2013-06-26 10:57:00,
2013-06-26 05:59:00,71.2,48.2,29.67,South,176,5.4,6.3,44,0.00,,SCT020,0.00,VWS V14.01,2013-06-26 10:59:00,
2013-06-26 06:01:00,71.2,48.2,29.67,South,174,8.1,8.3,44,0.00,,SCT020,0.00,VWS V14.01,2013-06-26 11:01:00,
2013-06-26 06:02:00,71.2,48.2,29.67,SSE,152,6.3,6.3,44,0.00,,FEW049,0.00,VWS V14.01,2013-06-26 11:02:00,
2013-06-26 06:03:00,71.2,48.2,29.67,SSW,198,8.7,8.7,44,0.00,,FEW049,0.00,VWS V14.01,2013-06-26 11:03:00,
2013-06-26 06:04:00,71.2,48.2,29.67,SSE,155,7.6,8.7,44,0.00,,FEW049,0.00,VWS V14.01,2013-06-26 11:04:00,
2013-06-26 06:06:00,71.2,48.2,29.67,SSE,153,5.4,8.3,44,0.00,,FEW049,0.00,VWS V14.01,2013-06-26 11:06:00,
2013-06-26 06:08:00,71.2,48.2,29.67,SSE,158,4.0,6.3,44,0.00,,FEW049,0.00,VWS V14.01,2013-06-26 11:08:00,
2013-06-26 06:09:00,71.2,48.2,29.67,South,173,8.1,8.7,44,0.00,,FEW049,0.00,VWS V14.01,2013-06-26 11:09:00,
2013-06-26 06:11:00,71.2,48.2,29.67,SSE,166,8.7,8.7,44,0.00,,FEW049,0.00,VWS V14.01,2013-06-26 11:11:00,
2013-06-26 06:13:00,71.2,48.2,29.67,South,170,6.3,7.6,44,0.00,,FEW049,0.00,VWS V14.01,2013-06-26 11:13:00,
2013-06-26 06:14:00,71.2,48.2,29.67,South,174,6.3,6.3,44,0.00,,FEW049,0.00,VWS V14.01,2013-06-26 11:14:00,
2013-06-26 06:15:00,71.2,48.2,29.67,SSW,196,5.8,6.7,44,0.00,,FEW049,0.00,VWS V14.01,2013-06-26 11:15:00,
2013-06-26 06:17:00,71.2,48.2,29.67,South,174,6.7,8.1,44,0.00,,FEW049,0.00,VWS V14.01,2013-06-26 11:17:00,
2013-06-26 06:19:00,71.2,48.2,29.67,SSW,195,8.1,8.1,44,0.00,,FEW049,0.00,VWS V14.01,2013-06-26 11:19:00,
2013-06-26 06:20:00,71.2,48.2,29.67,South,183,8.3,8.3,44,0.00,,FEW049,0.00,VWS V14.01,2013-06-26 11:20:00,
2013-06-26 06:23:00,71.4,48.4,29.67,SSW,200,6.3,6.3,44,0.00,,FEW049,0.00,VWS V14.01,2013-06-26 11:23:00,
2013-06-26 06:25:00,71.6,48.6,29.67,SSW,209,8.7,8.7,44,0.00,,FEW049,0.00,VWS V14.01,2013-06-26 11:25:00,
2013-06-26 06:26:00,71.6,48.6,29.67,SSW,212,7.6,10.1,44,0.00,,FEW049,0.00,VWS V14.01,2013-06-26 11:26:00,
2013-06-26 06:29:00,71.6,48.6,29.67,SSW,197,5.8,7.6,44,0.00,,FEW049,0.00,VWS V14.01,2013-06-26 11:29:00,
2013-06-26 06:30:00,71.6,48.6,29.67,SSW,211,9.2,11.0,44,0.00,,FEW049,0.00,VWS V14.01,2013-06-26 11:30:00,
2013-06-26 06:32:00,71.8,48.7,29.67,SSW,201,6.7,8.1,44,0.00,,FEW049,0.00,VWS V14.01,2013-06-26 11:32:00,
2013-06-26 06:34:00,71.8,48.7,29.67,South,180,6.3,8.3,44,0.00,,FEW049,0.00,VWS V14.01,2013-06-26 11:34:00,
2013-06-26 06:35:00,71.8,48.7,29.67,SW,219,7.6,7.6,44,0.00,,FEW049,0.00,VWS V14.01,2013-06-26 11:35:00,
2013-06-26 06:36:00,71.8,48.7,29.67,SW,219,6.3,7.6,44,0.00,,FEW049,0.00,VWS V14.01,2013-06-26 11:36:00,
2013-06-26 06:37:00,71.8,48.7,29.67,SSW,212,6.7,7.6,44,0.00,,FEW049,0.00,VWS V14.01,2013-06-26 11:37:00,
2013-06-26 06:40:00,72.0,48.9,29.67,SSW,200,6.3,6.3,44,0.00,,FEW049,0.00,VWS V14.01,2013-06-26 11:40:00,
2013-06-26 06:41:00,72.0,48.9,29.67,South,177,5.8,6.3,44,0.00,,FEW049,0.00,VWS V14.01,2013-06-26 11:41:00,
2013-06-26 06:42:00,72.0,48.9,29.67,South,189,6.3,6.3,44,0.00,,FEW049,0.00,VWS V14.01,2013-06-26 11:42:00,
2013-06-26 06:46:00,72.0,48.9,29.67,SSW,200,4.0,6.7,44,0.00,,FEW049,0.00,VWS V14.01,2013-06-26 11:46:00,
2013-06-26 06:47:00,72.0,48.9,29.67,SSW,206,5.4,5.8,44,0.00,,FEW049,0.00,VWS V14.01,2013-06-26 11:47:00,
2013-06-26 06:51:00,72.1,49.0,29.67,South,180,3.1,4.5,44,0.00,,FEW049,0.00,VWS V14.01,2013-06-26 11:51:00,
2013-06-26 06:52:00,72.1,49.0,29.67,SW,221,5.8,7.6,44,0.00,,FEW049,0.00,VWS V14.01,2013-06-26 11:52:00,
2013-06-26 06:53:00,72.1,49.0,29.67,SSW,195,4.9,5.8,44,0.00,,FEW049,0.00,VWS V14.01,2013-06-26 11:53:00,
2013-06-26 06:54:00,72.1,49.0,29.67,SSW,195,3.1,4.0,44,0.00,,FEW049,0.00,VWS V14.01,2013-06-26 11:54:00,
2013-06-26 06:56:00,72.1,49.0,29.67,SSW,195,4.0,4.0,44,0.00,,FEW049,0.00,VWS V14.01,2013-06-26 11:56:00,
2013-06-26 06:58:00,72.1,49.0,29.67,SSW,203,5.4,5.4,44,0.00,,FEW049,0.00,VWS V14.01,2013-06-26 11:58:00,
2013-06-26 06:59:00,72.3,49.2,29.67,South,180,3.6,5.4,44,0.00,,FEW049,0.00,VWS V14.01,2013-06-26 11:59:00,
2013-06-26 07:00:00,72.3,49.2,29.67,South,184,4.0,4.9,44,0.00,,FEW049,0.00,VWS V14.01,2013-06-26 12:00:00,
2013-06-26 07:01:00,72.3,49.2,29.67,South,189,4.0,4.9,44,0.00,,FEW049,0.00,VWS V14.01,2013-06-26 12:01:00,
2013-06-26 07:03:00,72.3,49.2,29.67,South,185,3.1,3.6,44,0.00,,OVC070,0.00,VWS V14.01,2013-06-26 12:03:00,
2013-06-26 07:04:00,72.3,49.2,29.67,South,185,2.7,3.6,44,0.00,,OVC070,0.00,VWS V14.01,2013-06-26 12:04:00,
2013-06-26 07:05:00,72.5,49.4,29.67,South,178,3.1,4.0,44,0.00,,OVC070,0.00,VWS V14.01,2013-06-26 12:05:00,
2013-06-26 07:07:00,72.5,49.4,29.67,South,170,4.9,5.4,44,0.00,,OVC070,0.00,VWS V14.01,2013-06-26 12:07:00,
2013-06-26 07:08:00,72.5,49.4,29.67,SSE,164,3.6,5.8,44,0.00,,OVC070,0.00,VWS V14.01,2013-06-26 12:08:00,
2013-06-26 07:09:00,72.5,49.4,29.67,SSE,168,2.7,5.8,44,0.00,,OVC070,0.00,VWS V14.01,2013-06-26 12:09:00,
2013-06-26 07:10:00,72.5,49.4,29.67,SSE,167,4.9,4.9,44,0.00,,OVC070,0.00,VWS V14.01,2013-06-26 12:10:00,
2013-06-26 07:11:00,72.5,49.4,29.67,SSE,160,4.0,4.0,44,0.00,,OVC070,0.00,VWS V14.01,2013-06-26 12:11:00,
2013-06-26 07:13:00,72.7,49.5,29.67,SSW,203,5.4,5.4,44,0.00,,OVC070,0.00,VWS V14.01,2013-06-26 12:13:00,
2013-06-26 07:14:00,72.7,49.5,29.67,South,188,4.9,4.9,44,0.00,,OVC070,0.00,VWS V14.01,2013-06-26 12:14:00,
2013-06-26 07:15:00,72.7,49.5,29.67,SSE,165,4.0,4.9,44,0.00,,OVC070,0.00,VWS V14.01,2013-06-26 12:15:00,
2013-06-26 07:16:00,72.7,49.5,29.67,South,170,5.4,5.8,44,0.00,,OVC070,0.00,VWS V14.01,2013-06-26 12:16:00,
2013-06-26 07:17:00,72.7,49.5,29.67,SSE,158,4.0,4.0,44,0.00,,OVC070,0.00,VWS V14.01,2013-06-26 12:17:00,
2013-06-26 07:19:00,72.7,49.5,29.67,South,179,3.1,5.8,44,0.00,,OVC070,0.00,VWS V14.01,2013-06-26 12:19:00,
2013-06-26 07:20:00,72.7,49.5,29.67,SSE,166,3.6,4.9,44,0.00,,OVC070,0.00,VWS V14.01,2013-06-26 12:20:00,
2013-06-26 07:21:00,72.7,49.5,29.67,SSE,159,4.9,4.9,44,0.00,,OVC070,0.00,VWS V14.01,2013-06-26 12:21:00,
2013-06-26 07:22:00,72.7,49.5,29.67,SSE,160,4.9,6.3,44,0.00,,OVC070,0.00,VWS V14.01,2013-06-26 12:22:00,
2013-06-26 07:23:00,72.9,49.7,29.67,South,175,3.1,6.3,44,0.00,,OVC070,0.00,VWS V14.01,2013-06-26 12:23:00,
2013-06-26 07:24:00,72.9,49.7,29.67,SSE,154,5.4,6.3,44,0.00,,OVC070,0.00,VWS V14.01,2013-06-26 12:24:00,
2013-06-26 07:26:00,72.9,49.7,29.70,South,181,5.4,5.8,44,0.00,,OVC070,0.00,VWS V14.01,2013-06-26 12:26:00,
2013-06-26 07:27:00,72.9,49.7,29.70,South,172,3.1,3.6,44,0.00,,OVC070,0.00,VWS V14.01,2013-06-26 12:27:00,
2013-06-26 07:28:00,72.9,49.7,29.70,South,183,5.4,5.4,44,0.00,,OVC070,0.00,VWS V14.01,2013-06-26 12:28:00,
2013-06-26 07:29:00,72.9,49.7,29.70,SSE,162,5.4,5.4,44,0.00,,OVC070,0.00,VWS V14.01,2013-06-26 12:29:00,
2013-06-26 07:31:00,73.0,49.9,29.70,South,179,4.9,7.6,44,0.00,,OVC070,0.00,VWS V14.01,2013-06-26 12:31:00,
2013-06-26 07:32:00,73.0,49.9,29.70,South,187,5.8,6.3,44,0.00,,OVC070,0.00,VWS V14.01,2013-06-26 12:32:00,
2013-06-26 07:34:00,73.0,49.9,29.70,SSE,160,5.8,5.8,44,0.00,,OVC070,0.00,VWS V14.01,2013-06-26 12:34:00,
2013-06-26 07:35:00,73.0,49.9,29.70,South,179,4.0,5.8,44,0.00,,OVC070,0.00,VWS V14.01,2013-06-26 12:35:00,
2013-06-26 07:36:00,73.2,50.0,29.70,South,175,5.8,5.8,44,0.00,,OVC070,0.00,VWS V14.01,2013-06-26 12:36:00,
2013-06-26 07:38:00,73.2,50.0,29.70,SSW,198,5.4,6.3,44,0.00,,OVC070,0.00,VWS V14.01,2013-06-26 12:38:00,
2013-06-26 07:40:00,73.2,50.0,29.70,South,187,5.8,5.8,44,0.00,,OVC070,0.00,VWS V14.01,2013-06-26 12:40:00,
2013-06-26 07:41:00,73.4,50.2,29.70,SSE,159,5.8,6.3,44,0.00,,OVC070,0.00,VWS V14.01,2013-06-26 12:41:00,
2013-06-26 07:43:00,73.4,50.2,29.70,South,175,4.0,4.0,44,0.00,,OVC070,0.00,VWS V14.01,2013-06-26 12:43:00,
2013-06-26 07:45:00,73.4,50.2,29.70,SSW,199,5.4,5.4,44,0.00,,OVC070,0.00,VWS V14.01,2013-06-26 12:45:00,
2013-06-26 07:46:00,73.4,50.2,29.70,South,170,4.0,5.4,44,0.00,,OVC070,0.00,VWS V14.01,2013-06-26 12:46:00,
2013-06-26 07:47:00,73.4,50.2,29.70,South,172,5.4,5.8,44,0.00,,OVC070,0.00,VWS V14.01,2013-06-26 12:47:00,
2013-06-26 07:48:00,73.6,50.3,29.70,South,187,5.4,5.4,44,0.00,,OVC070,0.00,VWS V14.01,2013-06-26 12:48:00,
2013-06-26 07:50:00,73.6,50.3,29.70,South,170,3.6,3.6,44,0.00,,OVC070,0.00,VWS V14.01,2013-06-26 12:50:00,
2013-06-26 07:51:00,73.6,50.3,29.70,South,170,2.2,3.6,44,0.00,,OVC070,0.00,VWS V14.01,2013-06-26 12:51:00,
2013-06-26 07:53:00,73.6,50.3,29.70,SSE,149,0.0,2.7,44,0.00,,OVC070,0.00,VWS V14.01,2013-06-26 12:53:00,
2013-06-26 07:54:00,73.6,50.3,29.70,SSE,148,0.0,2.7,44,0.00,,OVC070,0.00,VWS V14.01,2013-06-26 12:54:00,
2013-06-26 07:55:00,73.6,50.3,29.70,North,8,4.9,4.9,44,0.00,,OVC070,0.00,VWS V14.01,2013-06-26 12:55:00,
2013-06-26 07:56:00,73.6,50.3,29.70,NNE,16,5.4,5.4,44,0.00,,OVC070,0.00,VWS V14.01,2013-06-26 12:56:00,
2013-06-26 07:59:00,73.6,51.5,29.70,NNE,21,6.3,6.3,46,0.00,,OVC070,0.00,VWS V14.01,2013-06-26 12:59:00,
2013-06-26 08:01:00,73.6,51.5,29.70,NE,47,6.7,10.1,46,0.00,,OVC070,0.00,VWS V14.01,2013-06-26 13:01:00,
2013-06-26 08:02:00,73.4,50.2,29.70,NNE,32,5.8,6.3,44,0.00,,OVC070,0.00,VWS V14.01,2013-06-26 13:02:00,
2013-06-26 08:04:00,73.2,50.0,29.70,NNE,17,4.0,8.1,44,0.00,,OVC035,0.00,VWS V14.01,2013-06-26 13:04:00,
2013-06-26 08:06:00,72.9,49.7,29.70,NE,36,5.4,5.4,44,0.00,,OVC035,0.00,VWS V14.01,2013-06-26 13:06:00,
2013-06-26 08:07:00,72.9,50.9,29.70,NNE,23,0.0,0.0,46,0.00,,OVC035,0.00,VWS V14.01,2013-06-26 13:07:00,
2013-06-26 08:09:00,72.7,50.7,29.70,NE,52,5.4,8.1,46,0.00,,OVC035,0.00,VWS V14.01,2013-06-26 13:09:00,
2013-06-26 08:10:00,72.7,50.7,29.70,NNE,31,3.6,8.1,46,0.00,,OVC035,0.00,VWS V14.01,2013-06-26 13:10:00,
2013-06-26 08:11:00,72.5,50.6,29.70,NNE,19,5.4,5.4,46,0.00,,OVC035,0.00,VWS V14.01,2013-06-26 13:11:00,
2013-06-26 08:12:00,72.5,50.6,29.70,NE,43,4.9,5.4,46,0.00,,OVC035,0.00,VWS V14.01,2013-06-26 13:12:00,
2013-06-26 08:15:00,72.3,51.5,29.70,North,8,4.9,8.1,48,0.00,,OVC035,0.00,VWS V14.01,2013-06-26 13:15:00,
2013-06-26 08:16:00,72.3,51.5,29.70,NNE,31,4.0,8.7,48,0.00,,OVC035,0.00,VWS V14.01,2013-06-26 13:16:00,
2013-06-26 08:17:00,72.3,51.5,29.70,NE,41,4.9,6.3,48,0.00,,OVC035,0.00,VWS V14.01,2013-06-26 13:17:00,
2013-06-26 08:18:00,72.1,51.4,29.70,NNE,29,4.9,7.6,48,0.00,,OVC035,0.00,VWS V14.01,2013-06-26 13:18:00,
2013-06-26 08:20:00,72.1,52.5,29.70,NE,50,5.8,5.8,50,0.00,,OVC035,0.00,VWS V14.01,2013-06-26 13:20:00,
2013-06-26 08:21:00,72.1,52.5,29.70,NE,56,5.4,5.8,50,0.00,,OVC035,0.00,VWS V14.01,2013-06-26 13:21:00,
2013-06-26 08:22:00,72.1,52.5,29.70,NNE,24,5.4,6.3,50,0.00,,OVC035,0.00,VWS V14.01,2013-06-26 13:22:00,
2013-06-26 08:24:00,72.1,52.5,29.70,NE,56,0.0,2.2,50,0.00,,OVC035,0.00,VWS V14.01,2013-06-26 13:24:00,
2013-06-26 08:25:00,72.1,52.5,29.70,NE,56,0.0,0.0,50,0.00,,OVC035,0.00,VWS V14.01,2013-06-26 13:25:00,
2013-06-26 08:27:00,72.1,52.5,29.70,NE,56,0.0,0.0,50,0.00,,OVC035,0.00,VWS V14.01,2013-06-26 13:27:00,
2013-06-26 08:28:00,72.3,53.7,29.70,ENE,60,0.0,0.0,52,0.00,,OVC035,0.00,VWS V14.01,2013-06-26 13:28:00,
2013-06-26 08:29:00,72.3,53.7,29.70,NNE,31,3.1,3.1,52,0.00,,OVC035,0.00,VWS V14.01,2013-06-26 13:29:00,
2013-06-26 08:31:00,72.5,53.9,29.70,NNE,31,0.0,0.0,52,0.00,,OVC035,0.00,VWS V14.01,2013-06-26 13:31:00,
2013-06-26 08:33:00,72.5,53.9,29.70,NNE,31,0.0,0.0,52,0.00,,OVC035,0.00,VWS V14.01,2013-06-26 13:33:00,
2013-06-26 08:34:00,72.7,54.1,29.70,NE,51,2.7,3.1,52,0.00,,OVC035,0.00,VWS V14.01,2013-06-26 13:34:00,
2013-06-26 08:35:00,72.7,54.1,29.70,NE,51,0.0,0.0,52,0.00,,OVC035,0.00,VWS V14.01,2013-06-26 13:35:00,
2013-06-26 08:37:00,72.9,54.2,29.70,ENE,74,0.0,0.0,52,0.00,,OVC035,0.00,VWS V14.01,2013-06-26 13:37:00,
2013-06-26 08:38:00,72.9,54.2,29.70,SE,133,0.0,0.0,52,0.00,,OVC035,0.00,VWS V14.01,2013-06-26 13:38:00,
2013-06-26 08:39:00,72.9,54.2,29.70,SE,146,2.2,3.6,52,0.00,,OVC035,0.00,VWS V14.01,2013-06-26 13:39:00,
2013-06-26 08:40:00,72.9,54.2,29.70,SE,146,0.0,0.0,52,0.00,,OVC035,0.00,VWS V14.01,2013-06-26 13:40:00,
2013-06-26 08:41:00,73.0,54.4,29.70,SE,146,0.0,0.0,52,0.00,,OVC035,0.00,VWS V14.01,2013-06-26 13:41:00,
2013-06-26 08:43:00,73.0,54.4,29.70,SE,146,0.0,0.0,52,0.00,,OVC035,0.00,VWS V14.01,2013-06-26 13:43:00,
2013-06-26 08:45:00,73.2,54.6,29.70,South,191,2.2,4.0,52,0.00,,OVC035,0.00,VWS V14.01,2013-06-26 13:45:00,
2013-06-26 08:46:00,73.2,53.5,29.70,South,191,2.7,4.0,50,0.00,,OVC035,0.00,VWS V14.01,2013-06-26 13:46:00,
2013-06-26 08:47:00,73.2,53.5,29.70,ENE,74,4.9,5.4,50,0.00,,OVC035,0.00,VWS V14.01,2013-06-26 13:47:00,
2013-06-26 08:48:00,73.2,53.5,29.70,East,91,2.7,2.7,50,0.00,,OVC035,0.00,VWS V14.01,2013-06-26 13:48:00,
2013-06-26 08:51:00,73.2,53.5,29.70,East,84,0.0,0.0,50,0.00,,OVC035,0.00,VWS V14.01,2013-06-26 13:51:00,
2013-06-26 08:52:00,73.2,53.5,29.70,East,91,3.1,3.1,50,0.00,,OVC035,0.00,VWS V14.01,2013-06-26 13:52:00,
2013-06-26 08:54:00,73.2,53.5,29.70,East,91,0.0,0.0,50,0.00,,OVC035,0.00,VWS V14.01,2013-06-26 13:54:00,
2013-06-26 08:55:00,73.4,52.5,29.70,East,91,0.0,0.0,48,0.00,,OVC035,0.00,VWS V14.01,2013-06-26 13:55:00,
2013-06-26 08:56:00,73.4,52.5,29.70,East,91,0.0,0.0,48,0.00,,OVC035,0.00,VWS V14.01,2013-06-26 13:56:00,
2013-06-26 08:57:00,73.4,52.5,29.70,East,91,0.0,0.0,48,0.00,,OVC035,0.00,VWS V14.01,2013-06-26 13:57:00,
2013-06-26 08:59:00,73.4,52.5,29.70,East,91,0.0,2.2,48,0.00,,OVC035,0.00,VWS V14.01,2013-06-26 13:59:00,
2013-06-26 09:01:00,73.6,52.7,29.70,East,91,0.0,0.0,48,0.00,,OVC035,0.00,VWS V14.01,2013-06-26 14:01:00,
2013-06-26 09:02:00,73.6,52.7,29.70,East,92,0.0,0.0,48,0.00,,OVC035,0.00,VWS V14.01,2013-06-26 14:02:00,
2013-06-26 09:03:00,73.6,52.7,29.70,East,91,0.0,0.0,48,0.00,,OVC031,0.00,VWS V14.01,2013-06-26 14:03:00,
2013-06-26 09:04:00,73.8,52.9,29.70,East,81,0.0,0.0,48,0.00,,OVC031,0.00,VWS V14.01,2013-06-26 14:04:00,
2013-06-26 09:07:00,73.9,53.0,29.70,East,81,0.0,0.0,48,0.00,,OVC031,0.00,VWS V14.01,2013-06-26 14:07:00,
2013-06-26 09:08:00,74.1,53.2,29.70,East,81,0.0,0.0,48,0.00,,OVC031,0.00,VWS V14.01,2013-06-26 14:08:00,
2013-06-26 09:09:00,74.1,53.2,29.70,East,81,0.0,0.0,48,0.00,,OVC031,0.00,VWS V14.01,2013-06-26 14:09:00,
2013-06-26 09:10:00,74.1,53.2,29.70,East,81,0.0,0.0,48,0.00,,OVC031,0.00,VWS V14.01,2013-06-26 14:10:00,
2013-06-26 09:12:00,74.5,53.5,29.70,East,81,0.0,0.0,48,0.00,,OVC031,0.00,VWS V14.01,2013-06-26 14:12:00,
2013-06-26 09:13:00,74.7,53.7,29.70,East,81,0.0,0.0,48,0.00,,OVC031,0.00,VWS V14.01,2013-06-26 14:13:00,
2013-06-26 09:14:00,74.7,53.7,29.70,East,81,0.0,0.0,48,0.00,,OVC031,0.00,VWS V14.01,2013-06-26 14:14:00,
2013-06-26 09:15:00,74.8,53.8,29.70,East,81,0.0,0.0,48,0.00,,OVC031,0.00,VWS V14.01,2013-06-26 14:15:00,
2013-06-26 09:16:00,74.8,53.8,29.70,East,81,0.0,0.0,48,0.00,,OVC031,0.00,VWS V14.01,2013-06-26 14:16:00,
2013-06-26 09:17:00,74.8,53.8,29.70,East,81,0.0,0.0,48,0.00,,OVC031,0.00,VWS V14.01,2013-06-26 14:17:00,
2013-06-26 09:19:00,75.0,54.0,29.70,East,81,0.0,0.0,48,0.00,,OVC031,0.00,VWS V14.01,2013-06-26 14:19:00,
2013-06-26 09:20:00,75.2,54.2,29.70,East,81,0.0,0.0,48,0.00,,OVC031,0.00,VWS V14.01,2013-06-26 14:20:00,
2013-06-26 09:22:00,75.4,53.2,29.70,East,81,0.0,0.0,46,0.00,,OVC031,0.00,VWS V14.01,2013-06-26 14:22:00,
2013-06-26 09:23:00,75.4,53.2,29.70,East,81,0.0,0.0,46,0.00,,OVC031,0.00,VWS V14.01,2013-06-26 14:23:00,
2013-06-26 09:24:00,75.4,53.2,29.70,East,81,0.0,0.0,46,0.00,,OVC031,0.00,VWS V14.01,2013-06-26 14:24:00,
2013-06-26 09:25:00,75.6,53.3,29.70,East,83,0.0,2.2,46,0.00,,OVC031,0.00,VWS V14.01,2013-06-26 14:25:00,
2013-06-26 09:26:00,75.6,53.3,29.70,East,83,0.0,0.0,46,0.00,,OVC031,0.00,VWS V14.01,2013-06-26 14:26:00,
2013-06-26 09:27:00,75.6,53.3,29.70,East,83,0.0,0.0,46,0.00,,OVC031,0.00,VWS V14.01,2013-06-26 14:27:00,
2013-06-26 09:28:00,75.6,53.3,29.70,East,83,0.0,0.0,46,0.00,,OVC031,0.00,VWS V14.01,2013-06-26 14:28:00,
2013-06-26 09:30:00,75.6,52.1,29.70,East,83,0.0,2.7,44,0.00,,OVC031,0.00,VWS V14.01,2013-06-26 14:30:00,
2013-06-26 09:31:00,75.6,52.1,29.70,East,83,0.0,3.1,44,0.00,,OVC031,0.00,VWS V14.01,2013-06-26 14:31:00,
2013-06-26 09:32:00,75.6,52.1,29.70,East,83,0.0,0.0,44,0.00,,OVC031,0.00,VWS V14.01,2013-06-26 14:32:00,
2013-06-26 09:34:00,75.9,52.5,29.70,East,83,0.0,0.0,44,0.00,,OVC031,0.00,VWS V14.01,2013-06-26 14:34:00,
2013-06-26 09:36:00,75.9,52.5,29.70,East,83,2.7,2.7,44,0.00,,OVC031,0.00,VWS V14.01,2013-06-26 14:36:00,
2013-06-26 09:37:00,76.1,52.6,29.70,East,83,0.0,0.0,44,0.00,,OVC031,0.00,VWS V14.01,2013-06-26 14:37:00,
2013-06-26 09:39:00,76.3,52.8,29.70,East,83,0.0,0.0,44,0.00,,OVC031,0.00,VWS V14.01,2013-06-26 14:39:00,
2013-06-26 09:41:00,76.5,53.0,29.67,East,83,0.0,0.0,44,0.00,,OVC031,0.00,VWS V14.01,2013-06-26 14:41:00,
2013-06-26 09:42:00,76.5,53.0,29.67,East,83,0.0,0.0,44,0.00,,OVC031,0.00,VWS V14.01,2013-06-26 14:42:00,
2013-06-26 09:44:00,76.5,53.0,29.67,East,84,0.0,0.0,44,0.00,,OVC031,0.00,VWS V14.01,2013-06-26 14:44:00,
2013-06-26 09:45:00,76.5,53.0,29.67,East,84,0.0,0.0,44,0.00,,OVC031,0.00,VWS V14.01,2013-06-26 14:45:00,
2013-06-26 09:48:00,76.5,53.0,29.67,East,98,0.0,2.7,44,0.00,,OVC031,0.00,VWS V14.01,2013-06-26 14:48:00,
2013-06-26 09:49:00,76.5,53.0,29.67,East,98,0.0,0.0,44,0.00,,OVC031,0.00,VWS V14.01,2013-06-26 14:49:00,
2013-06-26 09:51:00,76.5,53.0,29.67,ESE,115,0.0,2.7,44,0.00,,OVC031,0.00,VWS V14.01,2013-06-26 14:51:00,
2013-06-26 09:53:00,76.5,53.0,29.67,SE,133,2.7,3.1,44,0.00,,OVC031,0.00,VWS V14.01,2013-06-26 14:53:00,
2013-06-26 09:54:00,76.6,53.1,29.67,SE,125,3.1,3.1,44,0.00,,OVC031,0.00,VWS V14.01,2013-06-26 14:54:00,
2013-06-26 09:56:00,76.6,53.1,29.67,SE,127,4.0,4.0,44,0.00,,OVC031,0.00,VWS V14.01,2013-06-26 14:56:00,
2013-06-26 09:58:00,76.8,53.3,29.67,ESE,123,4.0,4.0,44,0.00,,OVC031,0.00,VWS V14.01,2013-06-26 14:58:00,
2013-06-26 09:59:00,76.8,53.3,29.67,SE,141,3.6,3.6,44,0.00,,OVC031,0.00,VWS V14.01,2013-06-26 14:59:00,
2013-06-26 10:00:00,76.6,53.1,29.67,ESE,105,3.1,3.1,44,0.00,,OVC031,0.00,VWS V14.01,2013-06-26 15:00:00,
2013-06-26 10:01:00,76.6,53.1,29.67,ESE,111,3.1,3.1,44,0.00,,OVC031,0.00,VWS V14.01,2013-06-26 15:01:00,
2013-06-26 10:02:00,76.6,53.1,29.67,ESE,111,2.2,3.1,44,0.00,,OVC031,0.00,VWS V14.01,2013-06-26 15:02:00,
2013-06-26 10:04:00,76.6,53.1,29.67,ESE,121,3.1,3.1,44,0.00,,OVC029,0.00,VWS V14.01,2013-06-26 15:04:00,
2013-06-26 10:06:00,76.6,53.1,29.67,SE,139,3.6,3.6,44,0.00,,OVC029,0.00,VWS V14.01,2013-06-26 15:06:00,
2013-06-26 10:07:00,76.6,53.1,29.67,SE,139,0.0,3.6,44,0.00,,OVC029,0.00,VWS V14.01,2013-06-26 15:07:00,
2013-06-26 10:10:00,76.6,53.1,29.67,ESE,111,0.0,3.6,44,0.00,,OVC029,0.00,VWS V14.01,2013-06-26 15:10:00,
2013-06-26 10:11:00,76.5,53.0,29.70,ESE,121,2.7,5.4,44,0.00,,OVC029,0.00,VWS V14.01,2013-06-26 15:11:00,
2013-06-26 10:12:00,76.5,53.0,29.70,ESE,121,3.1,3.1,44,0.00,,OVC029,0.00,VWS V14.01,2013-06-26 15:12:00,
2013-06-26 10:15:00,76.5,53.0,29.70,SE,138,3.1,3.6,44,0.00,,OVC029,0.00,VWS V14.01,2013-06-26 15:15:00,
2013-06-26 10:17:00,76.5,53.0,29.70,SSE,147,0.0,3.6,44,0.00,,OVC029,0.00,VWS V14.01,2013-06-26 15:17:00,
2013-06-26 10:20:00,76.6,54.3,29.70,SE,144,2.7,2.7,46,0.00,,OVC029,0.00,VWS V14.01,2013-06-26 15:20:00,
2013-06-26 10:21:00,76.8,53.3,29.70,ESE,110,3.1,4.0,44,0.00,,OVC029,0.00,VWS V14.01,2013-06-26 15:21:00,
2013-06-26 10:22:00,76.8,53.3,29.70,ESE,118,4.9,4.9,44,0.00,,OVC029,0.00,VWS V14.01,2013-06-26 15:22:00,
2013-06-26 10:25:00,77.4,53.8,29.70,SSE,164,0.0,5.4,44,0.00,,OVC029,0.00,VWS V14.01,2013-06-26 15:25:00,
2013-06-26 10:26:00,77.4,53.8,29.70,SSE,164,2.7,5.4,44,0.00,,OVC029,0.00,VWS V14.01,2013-06-26 15:26:00,
2013-06-26 10:27:00,77.5,53.9,29.70,SSE,153,2.7,3.6,44,0.00,,OVC029,0.00,VWS V14.01,2013-06-26 15:27:00,
2013-06-26 10:28:00,77.7,54.1,29.70,SE,126,0.0,0.0,44,0.00,,OVC029,0.00,VWS V14.01,2013-06-26 15:28:00,
2013-06-26 10:29:00,77.7,54.1,29.70,SE,126,0.0,3.6,44,0.00,,OVC029,0.00,VWS V14.01,2013-06-26 15:29:00,
2013-06-26 10:31:00,77.9,53.0,29.70,SE,126,3.6,4.9,42,0.00,,OVC029,0.00,VWS V14.01,2013-06-26 15:31:00,
2013-06-26 10:33:00,78.1,53.2,29.70,ESE,121,0.0,0.0,42,0.00,,OVC029,0.00,VWS V14.01,2013-06-26 15:33:00,
2013-06-26 10:34:00,78.1,53.2,29.70,ESE,120,3.1,3.1,42,0.00,,OVC029,0.00,VWS V14.01,2013-06-26 15:34:00,
2013-06-26 10:35:00,78.3,53.3,29.70,SE,145,0.0,3.6,42,0.00,,OVC029,0.00,VWS V14.01,2013-06-26 15:35:00,
2013-06-26 10:37:00,78.3,53.3,29.70,SSE,149,3.6,3.6,42,0.00,,OVC029,0.00,VWS V14.01,2013-06-26 15:37:00,
2013-06-26 10:38:00,78.4,53.5,29.70,ESE,104,2.2,3.6,42,0.00,,OVC029,0.00,VWS V14.01,2013-06-26 15:38:00,
2013-06-26 10:39:00,78.4,53.5,29.70,ESE,104,0.0,0.0,42,0.00,,OVC029,0.00,VWS V14.01,2013-06-26 15:39:00,
2013-06-26 10:41:00,78.4,53.5,29.70,ESE,105,0.0,2.2,42,0.00,,OVC029,0.00,VWS V14.01,2013-06-26 15:41:00,
2013-06-26 10:43:00,78.6,53.6,29.70,SSE,163,3.1,3.1,42,0.00,,OVC029,0.00,VWS V14.01,2013-06-26 15:43:00,
2013-06-26 10:44:00,78.8,53.8,29.70,SE,146,2.2,3.6,42,0.00,,OVC029,0.00,VWS V14.01,2013-06-26 15:44:00,
2013-06-26 10:45:00,78.8,53.8,29.70,SSE,158,3.1,3.6,42,0.00,,OVC029,0.00,VWS V14.01,2013-06-26 15:45:00,
2013-06-26 10:46:00,78.8,53.8,29.70,SSE,150,4.0,4.0,42,0.00,,OVC029,0.00,VWS V14.01,2013-06-26 15:46:00,
2013-06-26 10:49:00,78.8,53.8,29.70,SE,136,3.1,3.1,42,0.00,,OVC029,0.00,VWS V14.01,2013-06-26 15:49:00,
2013-06-26 10:50:00,79.0,54.0,29.70,SSE,151,2.2,3.6,42,0.00,,OVC029,0.00,VWS V14.01,2013-06-26 15:50:00,
2013-06-26 10:51:00,79.0,54.0,29.70,SE,125,2.7,3.1,42,0.00,,OVC029,0.00,VWS V14.01,2013-06-26 15:51:00,
2013-06-26 10:54:00,79.3,54.3,29.70,SSE,154,3.6,3.6,42,0.00,,OVC029,0.00,VWS V14.01,2013-06-26 15:54:00,
2013-06-26 10:56:00,79.5,54.4,29.70,SSE,156,0.0,4.0,42,0.00,,OVC029,0.00,VWS V14.01,2013-06-26 15:56:00,
2013-06-26 10:57:00,79.5,54.4,29.70,SSE,167,4.0,4.0,42,0.00,,OVC029,0.00,VWS V14.01,2013-06-26 15:57:00,
2013-06-26 11:00:00,79.9,53.4,29.70,SSE,150,5.4,5.4,40,0.00,,OVC029,0.00,VWS V14.01,2013-06-26 16:00:00,
2013-06-26 11:01:00,79.9,53.4,29.70,SSE,159,3.1,5.4,40,0.00,,OVC029,0.00,VWS V14.01,2013-06-26 16:01:00,
2013-06-26 11:02:00,80.1,53.6,29.70,SSE,164,4.0,4.0,40,0.00,,OVC029,0.00,VWS V14.01,2013-06-26 16:02:00,
2013-06-26 11:04:00,80.4,53.9,29.70,SE,131,4.0,4.0,40,0.00,,OVC023,0.00,VWS V14.01,2013-06-26 16:04:00,
2013-06-26 11:05:00,80.6,54.1,29.70,SE,143,2.2,4.0,40,0.00,,OVC023,0.00,VWS V14.01,2013-06-26 16:05:00,
2013-06-26 11:07:00,80.6,54.1,29.70,SSE,150,0.0,4.0,40,0.00,,OVC023,0.00,VWS V14.01,2013-06-26 16:07:00,
2013-06-26 11:08:00,80.8,54.2,29.70,SSE,152,0.0,3.6,40,0.00,,OVC023,0.00,VWS V14.01,2013-06-26 16:08:00,
2013-06-26 11:10:00,81.0,54.4,29.70,SSE,160,3.1,3.1,40,0.00,,OVC023,0.00,VWS V14.01,2013-06-26 16:10:00,
2013-06-26 11:11:00,81.0,54.4,29.70,SSE,160,0.0,4.0,40,0.00,,OVC023,0.00,VWS V14.01,2013-06-26 16:11:00,
2013-06-26 11:12:00,81.1,54.5,29.70,SSE,160,0.0,3.1,40,0.00,,OVC023,0.00,VWS V14.01,2013-06-26 16:12:00,
2013-06-26 11:13:00,81.1,53.2,29.70,SSE,158,2.2,2.2,38,0.00,,OVC023,0.00,VWS V14.01,2013-06-26 16:13:00,
2013-06-26 11:16:00,81.3,53.3,29.70,SSE,148,0.0,3.6,38,0.00,,OVC023,0.00,VWS V14.01,2013-06-26 16:16:00,
2013-06-26 11:17:00,81.5,53.5,29.70,SSE,151,3.6,3.6,38,0.00,,OVC023,0.00,VWS V14.01,2013-06-26 16:17:00,
2013-06-26 11:18:00,81.5,53.5,29.70,SSE,151,2.7,2.7,38,0.00,,OVC023,0.00,VWS V14.01,2013-06-26 16:18:00,
2013-06-26 11:19:00,81.7,53.6,29.70,SSE,151,0.0,2.7,38,0.00,,OVC023,0.00,VWS V14.01,2013-06-26 16:19:00,
2013-06-26 11:21:00,81.9,53.8,29.70,ESE,120,3.6,3.6,38,0.00,,OVC023,0.00,VWS V14.01,2013-06-26 16:21:00,
2013-06-26 11:22:00,82.0,54.0,29.70,SSE,157,4.0,4.5,38,0.00,,OVC023,0.00,VWS V14.01,2013-06-26 16:22:00,
2013-06-26 11:23:00,82.2,54.1,29.70,SSE,157,0.0,4.0,38,0.00,,OVC023,0.00,VWS V14.01,2013-06-26 16:23:00,
2013-06-26 11:24:00,82.6,54.4,29.70,SSE,157,0.0,0.0,38,0.00,,OVC023,0.00,VWS V14.01,2013-06-26 16:24:00,
2013-06-26 11:26:00,82.8,54.6,29.70,SSE,152,3.6,3.6,38,0.00,,OVC023,0.00,VWS V14.01,2013-06-26 16:26:00,
2013-06-26 11:27:00,82.9,54.8,29.70,SSE,152,3.1,3.6,38,0.00,,OVC023,0.00,VWS V14.01,2013-06-26 16:27:00,
2013-06-26 11:28:00,83.1,50.2,29.70,SSE,165,0.0,4.0,32,0.00,,OVC023,0.00,VWS V14.01,2013-06-26 16:28:00,
2013-06-26 11:29:00,83.3,50.4,29.70,SSE,165,3.6,4.0,32,0.00,,OVC023,0.00,VWS V14.01,2013-06-26 16:29:00,
2013-06-26 11:30:00,83.5,50.5,29.70,SE,136,2.2,2.7,32,0.00,,OVC023,0.00,VWS V14.01,2013-06-26 16:30:00,
2013-06-26 11:32:00,84.0,51.0,29.70,ESE,110,2.7,2.7,32,0.00,,OVC023,0.00,VWS V14.01,2013-06-26 16:32:00,
2013-06-26 11:33:00,84.2,51.2,29.70,ESE,119,2.7,2.7,32,0.00,,OVC023,0.00,VWS V14.01,2013-06-26 16:33:00,
2013-06-26 11:34:00,84.2,51.2,29.70,ESE,118,2.2,4.0,32,0.00,,OVC023,0.00,VWS V14.01,2013-06-26 16:34:00,
2013-06-26 11:36:00,84.4,51.3,29.70,SSE,159,2.2,3.1,32,0.00,,OVC023,0.00,VWS V14.01,2013-06-26 16:36:00,
2013-06-26 11:38:00,84.4,51.3,29.70,ESE,118,3.1,4.9,32,0.00,,OVC023,0.00,VWS V14.01,2013-06-26 16:38:00,
2013-06-26 11:39:00,84.7,51.6,29.70,South,170,4.0,4.0,32,0.00,,OVC023,0.00,VWS V14.01,2013-06-26 16:39:00,
2013-06-26 11:40:00,84.7,51.6,29.70,SSE,153,2.2,3.1,32,0.00,,OVC023,0.00,VWS V14.01,2013-06-26 16:40:00,
2013-06-26 11:41:00,84.7,51.6,29.70,SE,139,2.7,3.1,32,0.00,,OVC023,0.00,VWS V14.01,2013-06-26 16:41:00,
2013-06-26 11:42:00,84.9,51.8,29.70,ESE,119,3.6,3.6,32,0.00,,OVC023,0.00,VWS V14.01,2013-06-26 16:42:00,
2013-06-26 11:43:00,85.1,46.4,29.70,SSE,162,4.5,5.4,26,0.00,,OVC023,0.00,VWS V14.01,2013-06-26 16:43:00,
2013-06-26 11:45:00,85.3,46.5,29.70,SE,141,0.0,3.1,26,0.00,,OVC023,0.00,VWS V14.01,2013-06-26 16:45:00,
2013-06-26 11:46:00,85.3,46.5,29.70,SE,145,2.7,3.1,26,0.00,,OVC023,0.00,VWS V14.01,2013-06-26 16:46:00,
2013-06-26 11:47:00,86.0,52.7,29.70,SSE,158,0.0,2.7,32,0.00,,OVC023,0.00,VWS V14.01,2013-06-26 16:47:00,
2013-06-26 11:49:00,86.5,47.6,29.70,SSE,149,4.0,4.0,26,0.00,,OVC023,0.00,VWS V14.01,2013-06-26 16:49:00,
2013-06-26 11:50:00,86.9,47.9,29.70,ESE,119,3.1,3.6,26,0.00,,OVC023,0.00,VWS V14.01,2013-06-26 16:50:00,
2013-06-26 11:52:00,87.1,48.1,29.70,SE,136,3.6,3.6,26,0.00,,OVC023,0.00,VWS V14.01,2013-06-26 16:52:00,
2013-06-26 11:54:00,87.1,48.1,29.70,SE,124,0.0,0.0,26,0.00,,OVC023,0.00,VWS V14.01,2013-06-26 16:54:00,
2013-06-26 11:56:00,87.3,48.2,29.70,ESE,122,3.1,5.8,26,0.00,,OVC023,0.00,VWS V14.01,2013-06-26 16:56:00,
2013-06-26 11:57:00,87.1,48.1,29.70,ESE,118,3.6,3.6,26,0.00,,OVC023,0.00,VWS V14.01,2013-06-26 16:57:00,
2013-06-26 11:58:00,87.1,48.1,29.70,SE,137,3.1,3.6,26,0.00,,OVC023,0.00,VWS V14.01,2013-06-26 16:58:00,
2013-06-26 11:59:00,86.9,47.9,29.70,SSE,152,2.7,6.3,26,0.00,,OVC023,0.00,VWS V14.01,2013-06-26 16:59:00,
2013-06-26 12:00:00,87.1,48.1,29.70,SSE,162,4.0,4.0,26,0.00,,OVC023,0.00,VWS V14.01,2013-06-26 17:00:00,
2013-06-26 12:01:00,87.1,48.1,29.70,ESE,115,3.6,3.6,26,0.00,,OVC023,0.00,VWS V14.01,2013-06-26 17:01:00,
2013-06-26 12:03:00,87.1,48.1,29.70,SSE,159,4.0,4.0,26,0.00,,OVC023,0.00,VWS V14.01,2013-06-26 17:03:00,
2013-06-26 12:04:00,87.1,53.7,29.70,SE,134,4.0,4.9,32,0.00,,OVC023,0.00,VWS V14.01,2013-06-26 17:04:00,
2013-06-26 12:05:00,87.3,48.2,29.70,SE,146,5.4,5.4,26,0.00,,OVC023,0.00,VWS V14.01,2013-06-26 17:05:00,
2013-06-26 12:06:00,87.3,48.2,29.70,SSE,159,5.4,5.4,26,0.00,,OVC023,0.00,VWS V14.01,2013-06-26 17:06:00,
2013-06-26 12:09:00,87.3,48.2,29.70,SSW,192,5.4,5.4,26,0.00,,OVC023,0.00,VWS V14.01,2013-06-26 17:09:00,
2013-06-26 12:10:00,87.3,48.2,29.70,SSE,150,5.4,5.4,26,0.00,,OVC023,0.00,VWS V14.01,2013-06-26 17:10:00,
2013-06-26 12:12:00,87.6,48.5,29.70,SSE,163,2.7,2.7,26,0.00,,OVC023,0.00,VWS V14.01,2013-06-26 17:12:00,
2013-06-26 12:14:00,88.0,48.8,29.70,SSW,205,6.3,6.3,26,0.00,,OVC023,0.00,VWS V14.01,2013-06-26 17:14:00,
2013-06-26 12:15:00,88.2,49.0,29.70,SSW,211,6.3,6.3,26,0.00,,OVC023,0.00,VWS V14.01,2013-06-26 17:15:00,
2013-06-26 12:16:00,88.5,42.4,29.70,SSE,150,2.2,6.3,20,0.00,,OVC023,0.00,VWS V14.01,2013-06-26 17:16:00,
2013-06-26 12:17:00,88.5,42.4,29.70,SSE,153,0.0,6.3,20,0.00,,OVC023,0.00,VWS V14.01,2013-06-26 17:17:00,
2013-06-26 12:19:00,88.7,49.5,29.70,SW,235,0.0,4.0,26,0.00,,OVC023,0.00,VWS V14.01,2013-06-26 17:19:00,
2013-06-26 12:21:00,88.9,42.7,29.70,SW,233,4.0,5.4,20,0.00,,OVC023,0.00,VWS V14.01,2013-06-26 17:21:00,
2013-06-26 12:22:00,88.9,42.7,29.70,SW,233,4.0,5.4,20,0.00,,OVC023,0.00,VWS V14.01,2013-06-26 17:22:00,
2013-06-26 12:27:00,88.7,42.5,29.70,SSW,208,4.0,4.0,20,0.00,,OVC023,0.00,VWS V14.01,2013-06-26 17:27:00,
2013-06-26 12:28:00,88.7,42.5,29.70,South,170,2.7,4.0,20,0.00,,OVC023,0.00,VWS V14.01,2013-06-26 17:28:00,
2013-06-26 12:29:00,88.7,42.5,29.70,South,170,2.7,3.6,20,0.00,,OVC023,0.00,VWS V14.01,2013-06-26 17:29:00,
2013-06-26 12:32:00,89.1,42.8,29.70,SSW,200,3.6,4.0,20,0.00,,OVC023,0.00,VWS V14.01,2013-06-26 17:32:00,
2013-06-26 12:33:00,89.1,42.8,29.70,South,180,3.1,4.0,20,0.00,,OVC023,0.00,VWS V14.01,2013-06-26 17:33:00,
2013-06-26 12:34:00,89.2,43.0,29.70,SSW,206,2.2,3.1,20,0.00,,BKN047,0.00,VWS V14.01,2013-06-26 17:34:00,
2013-06-26 12:35:00,89.2,43.0,29.70,NNW,341,5.8,5.8,20,0.00,,BKN047,0.00,VWS V14.01,2013-06-26 17:35:00,
2013-06-26 12:38:00,89.1,42.8,29.70,West,273,5.8,6.3,20,0.00,,BKN047,0.00,VWS V14.01,2013-06-26 17:38:00,
2013-06-26 12:39:00,89.1,42.8,29.70,West,276,5.4,6.3,20,0.00,,BKN047,0.00,VWS V14.01,2013-06-26 17:39:00,
2013-06-26 12:40:00,88.9,42.7,29.70,WSW,257,4.0,5.4,20,0.00,,BKN047,0.00,VWS V14.01,2013-06-26 17:40:00,
2013-06-26 12:41:00,88.7,42.5,29.70,WSW,247,4.0,4.9,20,0.00,,BKN047,0.00,VWS V14.01,2013-06-26 17:41:00,
2013-06-26 12:44:00,89.2,43.0,29.70,South,179,4.0,4.9,20,0.00,,BKN047,0.00,VWS V14.01,2013-06-26 17:44:00,
2013-06-26 12:45:00,89.2,43.0,29.70,South,174,2.2,4.5,20,0.00,,BKN047,0.00,VWS V14.01,2013-06-26 17:45:00,
2013-06-26 12:47:00,90.0,43.5,29.70,West,261,4.0,4.0,20,0.00,,BKN047,0.00,VWS V14.01,2013-06-26 17:47:00,
2013-06-26 12:49:00,90.1,43.7,29.70,WSW,256,3.6,3.6,20,0.00,,BKN047,0.00,VWS V14.01,2013-06-26 17:49:00,
2013-06-26 12:50:00,90.3,43.8,29.70,South,182,4.0,4.0,20,0.00,,BKN047,0.00,VWS V14.01,2013-06-26 17:50:00,
2013-06-26 12:52:00,90.7,44.1,29.70,SW,235,7.6,7.6,20,0.00,,BKN047,0.00,VWS V14.01,2013-06-26 17:52:00,
2013-06-26 12:55:00,90.7,44.1,29.70,SW,231,8.1,8.1,20,0.00,,BKN047,0.00,VWS V14.01,2013-06-26 17:55:00,
2013-06-26 12:57:00,90.7,44.1,29.70,South,186,5.4,6.3,20,0.00,,BKN047,0.00,VWS V14.01,2013-06-26 17:57:00,
2013-06-26 12:59:00,91.0,44.4,29.70,WSW,254,3.6,6.3,20,0.00,,BKN047,0.00,VWS V14.01,2013-06-26 17:59:00,
2013-06-26 13:00:00,91.2,44.6,29.70,WSW,242,4.0,4.9,20,0.00,,BKN047,0.00,VWS V14.01,2013-06-26 18:00:00,
2013-06-26 13:01:00,91.2,44.6,29.70,WSW,239,4.9,4.9,20,0.00,,BKN047,0.00,VWS V14.01,2013-06-26 18:01:00,
2013-06-26 13:02:00,91.6,42.1,29.70,WSW,248,3.6,6.3,18,0.00,,BKN047,0.00,VWS V14.01,2013-06-26 18:02:00,
2013-06-26 13:04:00,91.8,42.3,29.70,SW,214,6.3,6.3,18,0.00,,BKN019,0.00,VWS V14.01,2013-06-26 18:04:00,
2013-06-26 13:06:00,92.1,42.6,29.70,SW,226,4.9,4.9,18,0.00,,BKN019,0.00,VWS V14.01,2013-06-26 18:06:00,
2013-06-26 13:07:00,91.9,42.4,29.70,West,268,6.3,6.3,18,0.00,,BKN019,0.00,VWS V14.01,2013-06-26 18:07:00,
2013-06-26 13:08:00,91.8,42.3,29.70,West,261,6.3,7.2,18,0.00,,BKN019,0.00,VWS V14.01,2013-06-26 18:08:00,
2013-06-26 13:10:00,91.4,42.0,29.70,WNW,285,4.9,6.3,18,0.00,,BKN019,0.00,VWS V14.01,2013-06-26 18:10:00,
2013-06-26 13:12:00,91.2,44.6,29.67,West,263,5.4,5.4,20,0.00,,BKN019,0.00,VWS V14.01,2013-06-26 18:12:00,
2013-06-26 13:13:00,91.0,44.4,29.67,WSW,246,4.0,4.0,20,0.00,,BKN019,0.00,VWS V14.01,2013-06-26 18:13:00,
2013-06-26 13:15:00,91.0,44.4,29.67,SW,233,6.3,6.3,20,0.00,,BKN019,0.00,VWS V14.01,2013-06-26 18:15:00,
2013-06-26 13:17:00,91.2,44.6,29.67,WSW,246,5.4,5.8,20,0.00,,BKN019,0.00,VWS V14.01,2013-06-26 18:17:00,
2013-06-26 13:18:00,91.2,44.6,29.67,SSW,209,5.4,6.3,20,0.00,,BKN019,0.00,VWS V14.01,2013-06-26 18:18:00,
2013-06-26 13:21:00,91.6,42.1,29.67,SSW,194,5.8,7.6,18,0.00,,BKN019,0.00,VWS V14.01,2013-06-26 18:21:00,
2013-06-26 13:23:00,91.4,42.0,29.67,SW,229,5.4,5.4,18,0.00,,BKN019,0.00,VWS V14.01,2013-06-26 18:23:00,
2013-06-26 13:24:00,91.4,42.0,29.67,SSW,208,4.9,5.4,18,0.00,,BKN019,0.00,VWS V14.01,2013-06-26 18:24:00,
2013-06-26 13:26:00,91.6,42.1,29.67,SW,232,4.9,6.3,18,0.00,,BKN019,0.00,VWS V14.01,2013-06-26 18:26:00,
2013-06-26 13:29:00,91.8,42.3,29.67,West,273,3.6,6.3,18,0.00,,BKN019,0.00,VWS V14.01,2013-06-26 18:29:00,
2013-06-26 13:30:00,91.8,42.3,29.67,West,265,4.9,4.9,18,0.00,,BKN019,0.00,VWS V14.01,2013-06-26 18:30:00,
2013-06-26 13:31:00,91.6,42.1,29.67,West,267,4.0,4.9,18,0.00,,BKN019,0.00,VWS V14.01,2013-06-26 18:31:00,
2013-06-26 13:34:00,91.4,42.0,29.67,West,267,4.9,8.1,18,0.00,,BKN019,0.00,VWS V14.01,2013-06-26 18:34:00,
2013-06-26 13:35:00,91.2,44.6,29.67,WSW,246,4.9,6.7,20,0.00,,BKN019,0.00,VWS V14.01,2013-06-26 18:35:00,
2013-06-26 13:37:00,91.2,44.6,29.67,WSW,247,7.6,7.6,20,0.00,,BKN019,0.00,VWS V14.01,2013-06-26 18:37:00,
2013-06-26 13:40:00,91.0,44.4,29.67,WSW,237,6.7,8.7,20,0.00,,BKN019,0.00,VWS V14.01,2013-06-26 18:40:00,
2013-06-26 13:41:00,91.2,44.6,29.67,WSW,242,5.4,8.7,20,0.00,,BKN019,0.00,VWS V14.01,2013-06-26 18:41:00,
2013-06-26 13:42:00,91.2,44.6,29.67,SW,230,5.4,8.7,20,0.00,,BKN019,0.00,VWS V14.01,2013-06-26 18:42:00,
2013-06-26 13:45:00,91.0,44.4,29.67,WSW,243,2.7,5.8,20,0.00,,BKN019,0.00,VWS V14.01,2013-06-26 18:45:00,
2013-06-26 13:46:00,91.2,44.6,29.67,SW,230,7.6,7.6,20,0.00,,BKN019,0.00,VWS V14.01,2013-06-26 18:46:00,
2013-06-26 13:47:00,91.2,44.6,29.67,SSW,213,6.3,6.3,20,0.00,,BKN019,0.00,VWS V14.01,2013-06-26 18:47:00,
2013-06-26 13:48:00,91.2,44.6,29.67,SW,218,6.3,6.3,20,0.00,,BKN019,0.00,VWS V14.01,2013-06-26 18:48:00,
2013-06-26 13:51:00,91.4,42.0,29.67,SW,219,5.4,6.3,18,0.00,,BKN019,0.00,VWS V14.01,2013-06-26 18:51:00,
2013-06-26 13:52:00,91.6,42.1,29.67,SSW,210,4.9,6.7,18,0.00,,BKN019,0.00,VWS V14.01,2013-06-26 18:52:00,
2013-06-26 13:53:00,91.8,42.3,29.67,SW,223,2.7,4.9,18,0.00,,BKN019,0.00,VWS V14.01,2013-06-26 18:53:00,
2013-06-26 13:55:00,91.9,42.4,29.67,WSW,248,2.7,2.7,18,0.00,,BKN019,0.00,VWS V14.01,2013-06-26 18:55:00,
2013-06-26 13:56:00,92.1,42.6,29.67,West,278,3.6,4.0,18,0.00,,BKN019,0.00,VWS V14.01,2013-06-26 18:56:00,
2013-06-26 13:57:00,92.1,42.6,29.67,WSW,245,5.8,6.3,18,0.00,,BKN019,0.00,VWS V14.01,2013-06-26 18:57:00,
2013-06-26 14:00:00,92.3,42.7,29.67,SSW,210,2.7,4.9,18,0.00,,BKN019,0.00,VWS V14.01,2013-06-26 19:00:00,
2013-06-26 14:01:00,92.5,42.9,29.67,SSW,210,0.0,2.2,18,0.00,,BKN019,0.00,VWS V14.01,2013-06-26 19:01:00,
2013-06-26 14:02:00,92.5,42.9,29.67,SSW,210,0.0,2.2,18,0.00,,BKN019,0.00,VWS V14.01,2013-06-26 19:02:00,
2013-06-26 14:03:00,92.7,43.0,29.67,West,266,2.7,2.7,18,0.00,,BKN019,0.00,VWS V14.01,2013-06-26 19:03:00,
2013-06-26 14:05:00,93.2,43.4,29.67,West,262,4.0,5.4,18,0.00,,BKN021,0.00,VWS V14.01,2013-06-26 19:05:00,
2013-06-26 14:06:00,93.2,43.4,29.67,WNW,294,5.4,5.4,18,0.00,,BKN021,0.00,VWS V14.01,2013-06-26 19:06:00,
2013-06-26 14:07:00,93.4,43.6,29.67,WNW,288,7.6,7.6,18,0.00,,BKN021,0.00,VWS V14.01,2013-06-26 19:07:00,
2013-06-26 14:09:00,93.0,43.3,29.67,WSW,246,3.6,3.6,18,0.00,,BKN021,0.00,VWS V14.01,2013-06-26 19:09:00,
2013-06-26 14:10:00,92.8,43.2,29.67,West,263,6.3,6.3,18,0.00,,BKN021,0.00,VWS V14.01,2013-06-26 19:10:00,
2013-06-26 14:11:00,92.7,43.0,29.67,WNW,284,4.9,5.8,18,0.00,,BKN021,0.00,VWS V14.01,2013-06-26 19:11:00,
2013-06-26 14:12:00,92.7,43.0,29.67,West,274,3.6,5.8,18,0.00,,BKN021,0.00,VWS V14.01,2013-06-26 19:12:00,
2013-06-26 14:15:00,92.3,42.7,29.67,WNW,282,4.0,5.8,18,0.00,,BKN021,0.00,VWS V14.01,2013-06-26 19:15:00,
2013-06-26 14:17:00,92.3,42.7,29.67,WSW,243,6.3,8.3,18,0.00,,BKN021,0.00,VWS V14.01,2013-06-26 19:17:00,
2013-06-26 14:20:00,92.3,42.7,29.67,SW,231,5.8,7.6,18,0.00,,BKN021,0.00,VWS V14.01,2013-06-26 19:20:00,
2013-06-26 14:22:00,91.9,42.4,29.67,SW,235,7.6,7.6,18,0.00,,BKN021,0.00,VWS V14.01,2013-06-26 19:22:00,
2013-06-26 14:23:00,91.9,42.4,29.67,WSW,256,3.6,7.6,18,0.00,,BKN021,0.00,VWS V14.01,2013-06-26 19:23:00,
2013-06-26 14:24:00,91.8,42.3,29.67,WSW,256,4.9,5.8,18,0.00,,BKN021,0.00,VWS V14.01,2013-06-26 19:24:00,
2013-06-26 14:25:00,91.8,42.3,29.67,West,272,4.9,4.9,18,0.00,,BKN021,0.00,VWS V14.01,2013-06-26 19:25:00,
2013-06-26 14:27:00,91.4,42.0,29.67,SW,226,8.7,8.7,18,0.00,,BKN021,0.00,VWS V14.01,2013-06-26 19:27:00,
2013-06-26 14:28:00,91.4,42.0,29.67,SW,233,7.6,8.7,18,0.00,,BKN021,0.00,VWS V14.01,2013-06-26 19:28:00,
2013-06-26 14:29:00,91.2,44.6,29.67,WSW,251,5.4,8.7,20,0.00,,BKN021,0.00,VWS V14.01,2013-06-26 19:29:00,
2013-06-26 14:30:00,91.4,42.0,29.67,WSW,253,7.6,7.6,18,0.00,,BKN021,0.00,VWS V14.01,2013-06-26 19:30:00,
2013-06-26 14:34:00,91.6,42.1,29.67,WSW,246,6.3,6.3,18,0.00,,BKN025,0.00,VWS V14.01,2013-06-26 19:34:00,
2013-06-26 14:35:00,91.8,42.3,29.67,WSW,254,5.8,6.3,18,0.00,,BKN025,0.00,VWS V14.01,2013-06-26 19:35:00,
2013-06-26 14:36:00,91.8,42.3,29.67,WSW,251,5.8,7.6,18,0.00,,BKN025,0.00,VWS V14.01,2013-06-26 19:36:00,
2013-06-26 14:39:00,92.1,42.6,29.67,SW,231,4.0,5.8,18,0.00,,BKN025,0.00,VWS V14.01,2013-06-26 19:39:00,
2013-06-26 14:40:00,91.9,42.4,29.67,West,261,6.3,7.6,18,0.00,,BKN025,0.00,VWS V14.01,2013-06-26 19:40:00,
2013-06-26 14:41:00,92.1,42.6,29.67,West,259,3.6,8.7,18,0.00,,BKN025,0.00,VWS V14.01,2013-06-26 19:41:00,
2013-06-26 14:45:00,92.5,42.9,29.67,West,259,6.3,6.3,18,0.00,,BKN025,0.00,VWS V14.01,2013-06-26 19:45:00,
2013-06-26 14:46:00,92.5,42.9,29.67,WNW,302,5.4,6.3,18,0.00,,BKN025,0.00,VWS V14.01,2013-06-26 19:46:00,
2013-06-26 14:47:00,92.5,42.9,29.67,West,265,5.4,6.3,18,0.00,,BKN025,0.00,VWS V14.01,2013-06-26 19:47:00,
2013-06-26 14:50:00,92.5,42.9,29.67,SW,228,5.8,7.6,18,0.00,,BKN025,0.00,VWS V14.01,2013-06-26 19:50:00,
2013-06-26 14:51:00,92.3,42.7,29.67,WNW,303,7.2,7.6,18,0.00,,BKN025,0.00,VWS V14.01,2013-06-26 19:51:00,
2013-06-26 14:52:00,92.3,42.7,29.67,West,279,4.9,6.3,18,0.00,,BKN025,0.00,VWS V14.01,2013-06-26 19:52:00,
2013-06-26 14:56:00,92.7,43.0,29.67,SSW,208,8.1,8.1,18,0.00,,BKN025,0.00,VWS V14.01,2013-06-26 19:56:00,
2013-06-26 14:57:00,93.0,43.3,29.67,WSW,247,7.6,8.1,18,0.00,,BKN025,0.00,VWS V14.01,2013-06-26 19:57:00,
2013-06-26 14:58:00,92.8,43.2,29.67,West,275,6.7,8.7,18,0.00,,BKN025,0.00,VWS V14.01,2013-06-26 19:58:00,
2013-06-26 15:01:00,92.8,43.2,29.67,NW,313,8.1,8.1,18,0.00,,BKN025,0.00,VWS V14.01,2013-06-26 20:01:00,
2013-06-26 15:02:00,92.8,43.2,29.67,NW,326,5.8,8.7,18,0.00,,BKN025,0.00,VWS V14.01,2013-06-26 20:02:00,
2013-06-26 15:03:00,92.8,43.2,29.67,WNW,289,3.6,8.3,18,0.00,,BKN025,0.00,VWS V14.01,2013-06-26 20:03:00,
2013-06-26 15:06:00,93.4,43.6,29.67,West,271,8.7,9.2,18,0.00,,SCT027,0.00,VWS V14.01,2013-06-26 20:06:00,
2013-06-26 15:07:00,93.6,43.7,29.67,WNW,287,7.6,7.6,18,0.00,,SCT027,0.00,VWS V14.01,2013-06-26 20:07:00,
2013-06-26 15:08:00,93.4,43.6,29.67,NW,310,5.8,8.3,18,0.00,,SCT027,0.00,VWS V14.01,2013-06-26 20:08:00,
2013-06-26 15:11:00,92.8,43.2,29.67,WNW,289,7.6,7.6,18,0.00,,SCT027,0.00,VWS V14.01,2013-06-26 20:11:00,
2013-06-26 15:12:00,92.5,42.9,29.67,NW,317,5.4,8.3,18,0.00,,SCT027,0.00,VWS V14.01,2013-06-26 20:12:00,
2013-06-26 15:13:00,92.3,42.7,29.67,NNW,332,8.1,8.1,18,0.00,,SCT027,0.00,VWS V14.01,2013-06-26 20:13:00,
2013-06-26 15:15:00,92.3,42.7,29.67,SW,235,4.0,8.1,18,0.00,,SCT027,0.00,VWS V14.01,2013-06-26 20:15:00,
2013-06-26 15:17:00,92.5,42.9,29.67,West,270,5.4,5.4,18,0.00,,SCT027,0.00,VWS V14.01,2013-06-26 20:17:00,
2013-06-26 15:18:00,92.5,42.9,29.67,West,265,5.4,5.4,18,0.00,,SCT027,0.00,VWS V14.01,2013-06-26 20:18:00,
2013-06-26 15:19:00,92.5,42.9,29.67,WNW,285,5.8,8.3,18,0.00,,SCT027,0.00,VWS V14.01,2013-06-26 20:19:00,
2013-06-26 15:20:00,92.7,43.0,29.67,WNW,302,5.8,5.8,18,0.00,,SCT027,0.00,VWS V14.01,2013-06-26 20:20:00,
2013-06-26 15:22:00,92.5,42.9,29.67,WNW,290,6.3,8.3,18,0.00,,SCT027,0.00,VWS V14.01,2013-06-26 20:22:00,
2013-06-26 15:23:00,92.5,42.9,29.67,WNW,286,5.4,6.3,18,0.00,,SCT027,0.00,VWS V14.01,2013-06-26 20:23:00,
2013-06-26 15:24:00,92.3,42.7,29.67,WNW,285,8.1,8.3,18,0.00,,SCT027,0.00,VWS V14.01,2013-06-26 20:24:00,
2013-06-26 15:25:00,92.7,43.0,29.67,WNW,302,4.0,6.3,18,0.00,,SCT027,0.00,VWS V14.01,2013-06-26 20:25:00,
2013-06-26 15:27:00,92.7,43.0,29.67,West,268,7.6,8.1,18,0.00,,SCT027,0.00,VWS V14.01,2013-06-26 20:27:00,
2013-06-26 15:28:00,92.7,43.0,29.67,NNW,329,6.3,8.1,18,0.00,,SCT027,0.00,VWS V14.01,2013-06-26 20:28:00,
2013-06-26 15:30:00,92.7,43.0,29.67,West,271,8.1,10.1,18,0.00,,SCT027,0.00,VWS V14.01,2013-06-26 20:30:00,
2013-06-26 15:31:00,92.5,42.9,29.67,WNW,285,4.0,6.3,18,0.00,,SCT027,0.00,VWS V14.01,2013-06-26 20:31:00,
2013-06-26 15:33:00,92.8,43.2,29.67,NNW,332,6.3,6.3,18,0.00,,SCT027,0.00,VWS V14.01,2013-06-26 20:33:00,
2013-06-26 15:34:00,92.8,43.2,29.67,NW,317,12.3,12.3,18,0.00,,,0.00,VWS V14.01,2013-06-26 20:34:00,
2013-06-26 15:35:00,92.8,43.2,29.67,NW,318,5.8,8.1,18,0.00,,,0.00,VWS V14.01,2013-06-26 20:35:00,
2013-06-26 15:37:00,93.0,43.3,29.67,NW,322,8.7,8.7,18,0.00,,,0.00,VWS V14.01,2013-06-26 20:37:00,
2013-06-26 15:38:00,93.0,43.3,29.67,WNW,294,6.3,8.7,18,0.00,,,0.00,VWS V14.01,2013-06-26 20:38:00,
2013-06-26 15:40:00,93.0,43.3,29.67,NW,320,13.6,13.6,18,0.00,,,0.00,VWS V14.01,2013-06-26 20:40:00,
2013-06-26 15:41:00,92.8,43.2,29.67,NW,306,8.7,14.5,18,0.00,,,0.00,VWS V14.01,2013-06-26 20:41:00,
2013-06-26 15:43:00,92.5,42.9,29.67,West,281,12.3,12.3,18,0.00,,,0.00,VWS V14.01,2013-06-26 20:43:00,
2013-06-26 15:45:00,92.7,43.0,29.67,WNW,295,6.3,8.3,18,0.00,,,0.00,VWS V14.01,2013-06-26 20:45:00,
2013-06-26 15:46:00,92.5,42.9,29.67,NW,315,11.0,13.2,18,0.00,,,0.00,VWS V14.01,2013-06-26 20:46:00,
2013-06-26 15:48:00,92.5,42.9,29.67,NW,308,10.1,10.1,18,0.00,,,0.00,VWS V14.01,2013-06-26 20:48:00,
2013-06-26 15:49:00,92.5,42.9,29.67,WNW,283,8.3,10.1,18,0.00,,,0.00,VWS V14.01,2013-06-26 20:49:00,
2013-06-26 15:50:00,92.7,43.0,29.67,WNW,288,5.4,11.0,18,0.00,,,0.00,VWS V14.01,2013-06-26 20:50:00,
2013-06-26 15:52:00,92.5,42.9,29.67,WNW,302,7.6,7.6,18,0.00,,,0.00,VWS V14.01,2013-06-26 20:52:00,
2013-06-26 15:53:00,92.5,42.9,29.67,West,271,3.1,11.0,18,0.00,,,0.00,VWS V14.01,2013-06-26 20:53:00,
2013-06-26 15:55:00,92.7,43.0,29.67,NW,318,5.8,6.3,18,0.00,,,0.00,VWS V14.01,2013-06-26 20:55:00,
2013-06-26 15:56:00,92.7,43.0,29.64,NW,305,7.6,7.6,18,0.00,,,0.00,VWS V14.01,2013-06-26 20:56:00,
2013-06-26 15:57:00,92.7,43.0,29.64,WNW,290,7.6,8.3,18,0.00,,,0.00,VWS V14.01,2013-06-26 20:57:00,
2013-06-26 15:59:00,92.7,43.0,29.64,WNW,303,5.8,6.3,18,0.00,,,0.00,VWS V14.01,2013-06-26 20:59:00,
2013-06-26 16:00:00,92.7,43.0,29.64,West,277,6.3,8.3,18,0.00,,,0.00,VWS V14.01,2013-06-26 21:00:00,
2013-06-26 16:01:00,92.7,43.0,29.64,NW,315,8.1,8.1,18,0.00,,,0.00,VWS V14.01,2013-06-26 21:01:00,
2013-06-26 16:02:00,92.5,42.9,29.64,NW,316,8.3,10.1,18,0.00,,,0.00,VWS V14.01,2013-06-26 21:02:00,
2013-06-26 16:04:00,92.3,42.7,29.64,WSW,243,3.1,5.8,18,0.00,,FEW032,0.00,VWS V14.01,2013-06-26 21:04:00,
2013-06-26 16:05:00,92.3,42.7,29.64,West,263,4.0,5.8,18,0.00,,FEW032,0.00,VWS V14.01,2013-06-26 21:05:00,
2013-06-26 16:06:00,92.3,42.7,29.64,WNW,283,10.1,11.0,18,0.00,,FEW032,0.00,VWS V14.01,2013-06-26 21:06:00,
2013-06-26 16:08:00,92.1,42.6,29.64,NW,311,6.3,6.3,18,0.00,,FEW032,0.00,VWS V14.01,2013-06-26 21:08:00,
2013-06-26 16:09:00,92.1,42.6,29.64,NW,308,5.4,5.8,18,0.00,,FEW032,0.00,VWS V14.01,2013-06-26 21:09:00,
2013-06-26 16:10:00,92.1,42.6,29.64,WSW,240,8.7,8.7,18,0.00,,FEW032,0.00,VWS V14.01,2013-06-26 21:10:00,
2013-06-26 16:12:00,91.9,42.4,29.64,NW,311,7.2,9.2,18,0.00,,FEW032,0.00,VWS V14.01,2013-06-26 21:12:00,
2013-06-26 16:13:00,91.8,42.3,29.64,NW,313,6.3,6.3,18,0.00,,FEW032,0.00,VWS V14.01,2013-06-26 21:13:00,
2013-06-26 16:14:00,91.8,42.3,29.64,NW,318,8.3,8.3,18,0.00,,FEW032,0.00,VWS V14.01,2013-06-26 21:14:00,
2013-06-26 16:15:00,91.4,42.0,29.64,NNW,335,10.5,11.0,18,0.00,,FEW032,0.00,VWS V14.01,2013-06-26 21:15:00,
2013-06-26 16:16:00,91.4,42.0,29.64,NW,326,8.7,11.0,18,0.00,,FEW032,0.00,VWS V14.01,2013-06-26 21:16:00,
2013-06-26 16:17:00,91.0,44.4,29.64,NW,312,10.1,10.1,20,0.00,,FEW032,0.00,VWS V14.01,2013-06-26 21:17:00,
2013-06-26 16:19:00,90.9,44.3,29.64,NW,312,4.0,10.1,20,0.00,,FEW032,0.00,VWS V14.01,2013-06-26 21:19:00,
2013-06-26 16:20:00,90.9,44.3,29.64,NW,309,8.7,8.7,20,0.00,,FEW032,0.00,VWS V14.01,2013-06-26 21:20:00,
2013-06-26 16:21:00,90.9,44.3,29.64,NW,320,8.1,10.1,20,0.00,,FEW032,0.00,VWS V14.01,2013-06-26 21:21:00,
2013-06-26 16:25:00,90.3,43.8,29.64,NW,324,8.1,10.5,20,0.00,,FEW032,0.00,VWS V14.01,2013-06-26 21:25:00,
2013-06-26 16:26:00,90.1,43.7,29.67,NW,322,6.3,8.1,20,0.00,,FEW032,0.00,VWS V14.01,2013-06-26 21:26:00,
2013-06-26 16:27:00,90.1,43.7,29.67,NW,324,10.5,10.5,20,0.00,,FEW032,0.00,VWS V14.01,2013-06-26 21:27:00,
2013-06-26 16:30:00,90.0,43.5,29.67,NNW,329,8.3,8.3,20,0.00,,FEW032,0.00,VWS V14.01,2013-06-26 21:30:00,
2013-06-26 16:31:00,90.0,43.5,29.67,WNW,303,5.4,8.1,20,0.00,,FEW032,0.00,VWS V14.01,2013-06-26 21:31:00,
2013-06-26 16:32:00,90.0,43.5,29.67,NW,307,8.3,8.3,20,0.00,,FEW032,0.00,VWS V14.01,2013-06-26 21:32:00,
2013-06-26 16:36:00,90.0,43.5,29.67,NNW,328,10.1,11.4,20,0.00,,FEW032,0.00,VWS V14.01,2013-06-26 21:36:00,
2013-06-26 16:37:00,90.1,43.7,29.67,NNW,334,10.1,10.5,20,0.00,,FEW032,0.00,VWS V14.01,2013-06-26 21:37:00,
2013-06-26 16:41:00,90.3,43.8,29.67,WNW,303,8.7,10.5,20,0.00,,FEW032,0.00,VWS V14.01,2013-06-26 21:41:00,
2013-06-26 16:42:00,90.3,43.8,29.67,SW,230,8.7,10.5,20,0.00,,FEW032,0.00,VWS V14.01,2013-06-26 21:42:00,
2013-06-26 16:43:00,90.3,43.8,29.67,NW,311,5.8,10.5,20,0.00,,FEW032,0.00,VWS V14.01,2013-06-26 21:43:00,
2013-06-26 16:46:00,90.5,44.0,29.67,NW,307,7.6,8.7,20,0.00,,FEW032,0.00,VWS V14.01,2013-06-26 21:46:00,
2013-06-26 16:48:00,90.7,44.1,29.67,NNW,329,7.6,7.6,20,0.00,,FEW032,0.00,VWS V14.01,2013-06-26 21:48:00,
2013-06-26 16:49:00,90.7,44.1,29.67,NW,320,5.4,7.6,20,0.00,,FEW032,0.00,VWS V14.01,2013-06-26 21:49:00,
2013-06-26 16:52:00,91.0,44.4,29.67,NW,310,6.3,8.1,20,0.00,,FEW032,0.00,VWS V14.01,2013-06-26 21:52:00,
2013-06-26 16:53:00,91.2,44.6,29.67,WNW,291,4.9,8.1,20,0.00,,FEW032,0.00,VWS V14.01,2013-06-26 21:53:00,
2013-06-26 16:54:00,91.2,44.6,29.67,NW,325,7.6,8.1,20,0.00,,FEW032,0.00,VWS V14.01,2013-06-26 21:54:00,
2013-06-26 16:55:00,91.2,44.6,29.67,WNW,298,5.8,8.1,20,0.00,,FEW032,0.00,VWS V14.01,2013-06-26 21:55:00,
2013-06-26 16:57:00,91.0,44.4,29.67,NW,322,8.1,8.1,20,0.00,,FEW032,0.00,VWS V14.01,2013-06-26 21:57:00,
2013-06-26 16:58:00,90.9,44.3,29.67,NW,322,7.6,8.3,20,0.00,,FEW032,0.00,VWS V14.01,2013-06-26 21:58:00,
2013-06-26 16:59:00,90.5,44.0,29.67,NW,309,8.7,8.7,20,0.00,,FEW032,0.00,VWS V14.01,2013-06-26 21:59:00,
2013-06-26 17:00:00,90.3,43.8,29.67,North,353,6.3,8.7,20,0.00,,FEW032,0.00,VWS V14.01,2013-06-26 22:00:00,
2013-06-26 17:01:00,90.1,43.7,29.67,WNW,292,8.7,8.7,20,0.00,,FEW032,0.00,VWS V14.01,2013-06-26 22:01:00,
2013-06-26 17:03:00,89.4,43.1,29.67,NNW,337,8.3,9.2,20,0.00,,FEW032,0.00,VWS V14.01,2013-06-26 22:03:00,
2013-06-26 17:04:00,89.1,42.8,29.67,NW,318,8.3,9.6,20,0.00,,CLR,0.00,VWS V14.01,2013-06-26 22:04:00,
2013-06-26 17:05:00,89.1,42.8,29.67,NW,326,8.1,9.6,20,0.00,,CLR,0.00,VWS V14.01,2013-06-26 22:05:00,
2013-06-26 17:06:00,88.9,42.7,29.67,NW,320,7.6,8.1,20,0.00,,CLR,0.00,VWS V14.01,2013-06-26 22:06:00,
2013-06-26 17:07:00,88.7,42.5,29.67,NW,308,6.3,8.1,20,0.00,,CLR,0.00,VWS V14.01,2013-06-26 22:07:00,
2013-06-26 17:10:00,88.2,49.0,29.67,NW,324,6.7,8.7,26,0.00,,CLR,0.00,VWS V14.01,2013-06-26 22:10:00,
2013-06-26 17:11:00,88.0,48.8,29.67,NNW,327,4.0,4.0,26,0.00,,CLR,0.00,VWS V14.01,2013-06-26 22:11:00,
2013-06-26 17:12:00,87.8,48.7,29.67,NNW,331,5.4,5.8,26,0.00,,CLR,0.00,VWS V14.01,2013-06-26 22:12:00,
2013-06-26 17:15:00,87.6,48.5,29.67,NNW,338,4.0,5.4,26,0.00,,CLR,0.00,VWS V14.01,2013-06-26 22:15:00,
2013-06-26 17:16:00,87.6,48.5,29.67,NNW,331,6.3,6.3,26,0.00,,CLR,0.00,VWS V14.01,2013-06-26 22:16:00,
2013-06-26 17:17:00,87.4,48.4,29.67,NNW,340,5.8,7.6,26,0.00,,CLR,0.00,VWS V14.01,2013-06-26 22:17:00,
2013-06-26 17:20:00,87.4,48.4,29.67,NNW,335,4.0,4.5,26,0.00,,CLR,0.00,VWS V14.01,2013-06-26 22:20:00,
2013-06-26 17:21:00,87.4,48.4,29.67,NW,320,3.6,4.9,26,0.00,,CLR,0.00,VWS V14.01,2013-06-26 22:21:00,
2013-06-26 17:22:00,87.4,48.4,29.67,NNW,339,3.6,4.0,26,0.00,,CLR,0.00,VWS V14.01,2013-06-26 22:22:00,
2013-06-26 17:23:00,87.3,48.2,29.67,NNW,331,4.9,4.9,26,0.00,,CLR,0.00,VWS V14.01,2013-06-26 22:23:00,
2013-06-26 17:27:00,87.1,53.7,29.67,WNW,301,5.4,5.4,32,0.00,,CLR,0.00,VWS V14.01,2013-06-26 22:27:00,
2013-06-26 17:28:00,87.1,48.1,29.67,NW,304,5.8,5.8,26,0.00,,CLR,0.00,VWS V14.01,2013-06-26 22:28:00,
2013-06-26 17:29:00,87.1,48.1,29.67,NW,308,4.0,5.8,26,0.00,,CLR,0.00,VWS V14.01,2013-06-26 22:29:00,
2013-06-26 17:32:00,86.9,47.9,29.67,NW,308,3.1,4.9,26,0.00,,CLR,0.00,VWS V14.01,2013-06-26 22:32:00,
2013-06-26 17:33:00,86.7,47.8,29.67,NW,311,4.0,4.0,26,0.00,,CLR,0.00,VWS V14.01,2013-06-26 22:33:00,
2013-06-26 17:34:00,86.5,47.6,29.67,NNW,327,5.8,5.8,26,0.00,,CLR,0.00,VWS V14.01,2013-06-26 22:34:00,
2013-06-26 17:38:00,86.4,53.0,29.67,NW,318,4.0,4.9,32,0.00,,CLR,0.00,VWS V14.01,2013-06-26 22:38:00,
2013-06-26 17:39:00,86.2,52.9,29.67,NW,312,6.3,6.3,32,0.00,,CLR,0.00,VWS V14.01,2013-06-26 22:39:00,
2013-06-26 17:40:00,86.2,52.9,29.67,NW,313,5.4,6.3,32,0.00,,CLR,0.00,VWS V14.01,2013-06-26 22:40:00,
2013-06-26 17:42:00,86.2,52.9,29.67,NW,314,6.3,6.3,32,0.00,,CLR,0.00,VWS V14.01,2013-06-26 22:42:00,
2013-06-26 17:43:00,86.4,53.0,29.67,NW,316,4.0,4.9,32,0.00,,CLR,0.00,VWS V14.01,2013-06-26 22:43:00,
2013-06-26 17:44:00,86.4,53.0,29.67,NW,318,2.7,4.0,32,0.00,,CLR,0.00,VWS V14.01,2013-06-26 22:44:00,
2013-06-26 17:45:00,86.5,53.2,29.67,NW,318,3.6,3.6,32,0.00,,CLR,0.00,VWS V14.01,2013-06-26 22:45:00,
2013-06-26 17:46:00,86.5,53.2,29.67,NW,317,3.1,3.6,32,0.00,,CLR,0.00,VWS V14.01,2013-06-26 22:46:00,
2013-06-26 17:47:00,86.7,53.4,29.67,NW,319,3.6,4.0,32,0.00,,CLR,0.00,VWS V14.01,2013-06-26 22:47:00,
2013-06-26 17:49:00,86.9,53.5,29.67,NW,308,3.6,4.5,32,0.00,,CLR,0.00,VWS V14.01,2013-06-26 22:49:00,
2013-06-26 17:50:00,87.1,53.7,29.67,NNW,329,4.9,4.9,32,0.00,,CLR,0.00,VWS V14.01,2013-06-26 22:50:00,
2013-06-26 17:51:00,87.3,53.8,29.67,NNW,329,2.7,3.1,32,0.00,,CLR,0.00,VWS V14.01,2013-06-26 22:51:00,
2013-06-26 17:52:00,87.4,54.0,29.67,NNW,329,2.2,3.1,32,0.00,,CLR,0.00,VWS V14.01,2013-06-26 22:52:00,
2013-06-26 17:54:00,88.0,52.7,29.67,NNW,329,2.7,3.1,30,0.00,,CLR,0.00,VWS V14.01,2013-06-26 22:54:00,
2013-06-26 17:55:00,88.0,52.7,29.67,NNW,329,2.7,3.1,30,0.00,,CLR,0.00,VWS V14.01,2013-06-26 22:55:00,
2013-06-26 17:57:00,88.2,52.8,29.64,North,5,4.0,4.9,30,0.00,,CLR,0.00,VWS V14.01,2013-06-26 22:57:00,
2013-06-26 18:00:00,88.7,49.5,29.64,NNW,348,2.7,3.6,26,0.00,,CLR,0.00,VWS V14.01,2013-06-26 23:00:00,
2013-06-26 18:01:00,88.7,49.5,29.64,NNW,348,3.1,3.6,26,0.00,,CLR,0.00,VWS V14.01,2013-06-26 23:01:00,
2013-06-26 18:02:00,88.7,49.5,29.64,NNW,342,4.5,4.5,26,0.00,,CLR,0.00,VWS V14.01,2013-06-26 23:02:00,
2013-06-26 18:03:00,88.7,49.5,29.64,NNW,340,4.0,4.9,26,0.00,,CLR,0.00,VWS V14.01,2013-06-26 23:03:00,
2013-06-26 18:06:00,88.3,53.0,29.64,NNW,339,3.1,3.1,30,0.00,,CLR,0.00,VWS V14.01,2013-06-26 23:06:00,
2013-06-26 18:07:00,88.2,49.0,29.64,NNW,332,4.0,4.9,26,0.00,,CLR,0.00,VWS V14.01,2013-06-26 23:07:00,
2013-06-26 18:08:00,88.2,49.0,29.64,NNW,332,4.0,4.9,26,0.00,,CLR,0.00,VWS V14.01,2013-06-26 23:08:00,
2013-06-26 18:10:00,88.3,53.0,29.64,NNW,332,2.7,3.6,30,0.00,,CLR,0.00,VWS V14.01,2013-06-26 23:10:00,
2013-06-26 18:11:00,88.3,53.0,29.67,NNW,334,2.7,3.1,30,0.00,,CLR,0.00,VWS V14.01,2013-06-26 23:11:00,
2013-06-26 18:12:00,88.5,53.2,29.67,NNW,336,2.7,3.1,30,0.00,,CLR,0.00,VWS V14.01,2013-06-26 23:12:00,
2013-06-26 18:13:00,88.7,53.3,29.67,NNW,336,3.1,3.6,30,0.00,,CLR,0.00,VWS V14.01,2013-06-26 23:13:00,
2013-06-26 18:14:00,88.9,53.5,29.67,NNW,328,4.0,4.0,30,0.00,,CLR,0.00,VWS V14.01,2013-06-26 23:14:00,
2013-06-26 18:15:00,89.2,53.8,29.67,NNW,330,4.0,4.0,30,0.00,,CLR,0.00,VWS V14.01,2013-06-26 23:15:00,
2013-06-26 18:17:00,89.4,50.0,29.67,NNW,330,3.1,4.0,26,0.00,,CLR,0.00,VWS V14.01,2013-06-26 23:17:00,
2013-06-26 18:18:00,89.4,50.0,29.67,NNW,330,3.6,3.6,26,0.00,,CLR,0.00,VWS V14.01,2013-06-26 23:18:00,
2013-06-26 18:20:00,89.8,48.2,29.67,NW,319,4.0,4.0,24,0.00,,CLR,0.00,VWS V14.01,2013-06-26 23:20:00,
2013-06-26 18:22:00,89.8,48.2,29.67,NW,325,4.0,4.9,24,0.00,,CLR,0.00,VWS V14.01,2013-06-26 23:22:00,
2013-06-26 18:23:00,90.0,48.4,29.67,NNW,331,3.1,3.6,24,0.00,,CLR,0.00,VWS V14.01,2013-06-26 23:23:00,
2013-06-26 18:25:00,90.3,48.7,29.67,NW,319,3.1,3.6,24,0.00,,CLR,0.00,VWS V14.01,2013-06-26 23:25:00,
2013-06-26 18:27:00,90.9,49.1,29.67,NW,307,3.6,4.9,24,0.00,,CLR,0.00,VWS V14.01,2013-06-26 23:27:00,
2013-06-26 18:28:00,90.7,49.0,29.67,North,5,6.3,6.3,24,0.00,,CLR,0.00,VWS V14.01,2013-06-26 23:28:00,
2013-06-26 18:29:00,90.7,49.0,29.67,NNE,12,3.6,6.3,24,0.00,,CLR,0.00,VWS V14.01,2013-06-26 23:29:00,
2013-06-26 18:31:00,90.5,48.8,29.67,North,6,3.6,3.6,24,0.00,,CLR,0.00,VWS V14.01,2013-06-26 23:31:00,
2013-06-26 18:32:00,90.7,49.0,29.67,North,6,5.8,5.8,24,0.00,,CLR,0.00,VWS V14.01,2013-06-26 23:32:00,
2013-06-26 18:34:00,90.7,49.0,29.67,North,349,4.0,4.9,24,0.00,,CLR,0.00,VWS V14.01,2013-06-26 23:34:00,
2013-06-26 18:35:00,91.0,49.3,29.67,NNE,16,5.4,5.4,24,0.00,,CLR,0.00,VWS V14.01,2013-06-26 23:35:00,
2013-06-26 18:38:00,91.9,50.0,29.67,NNW,342,4.5,4.5,24,0.00,,CLR,0.00,VWS V14.01,2013-06-26 23:38:00,
2013-06-26 18:39:00,92.1,50.2,29.67,North,6,6.3,6.3,24,0.00,,CLR,0.00,VWS V14.01,2013-06-26 23:39:00,
2013-06-26 18:40:00,92.1,50.2,29.67,North,10,5.4,6.3,24,0.00,,CLR,0.00,VWS V14.01,2013-06-26 23:40:00,
2013-06-26 18:41:00,92.1,42.6,29.70,North,11,8.1,8.1,18,0.00,,CLR,0.00,VWS V14.01,2013-06-26 23:41:00,
2013-06-26 18:44:00,92.5,42.9,29.70,NNW,343,5.8,5.8,18,0.00,,CLR,0.00,VWS V14.01,2013-06-26 23:44:00,
2013-06-26 18:45:00,92.5,42.9,29.70,North,353,4.9,5.8,18,0.00,,CLR,0.00,VWS V14.01,2013-06-26 23:45:00,
2013-06-26 18:46:00,92.3,42.7,29.70,NNW,340,4.0,5.4,18,0.00,,CLR,0.00,VWS V14.01,2013-06-26 23:46:00,
2013-06-26 18:49:00,92.8,43.2,29.70,North,357,7.6,7.6,18,0.00,,CLR,0.00,VWS V14.01,2013-06-26 23:49:00,
2013-06-26 18:50:00,92.8,43.2,29.70,NW,326,5.4,7.6,18,0.00,,CLR,0.00,VWS V14.01,2013-06-26 23:50:00,
2013-06-26 18:51:00,93.0,43.3,29.70,NNW,333,2.7,4.0,18,0.00,,CLR,0.00,VWS V14.01,2013-06-26 23:51:00,
2013-06-26 18:54:00,93.0,43.3,29.70,North,7,5.4,6.7,18,0.00,,CLR,0.00,VWS V14.01,2013-06-26 23:54:00,
2013-06-26 18:55:00,92.8,43.2,29.70,NNE,14,4.0,6.7,18,0.00,,CLR,0.00,VWS V14.01,2013-06-26 23:55:00,
2013-06-26 18:57:00,92.8,43.2,29.70,NE,46,4.0,6.3,18,0.00,,CLR,0.00,VWS V14.01,2013-06-26 23:57:00,
2013-06-26 18:59:00,92.8,43.2,29.70,NNE,13,5.4,6.3,18,0.00,,CLR,0.00,VWS V14.01,2013-06-26 23:59:00,
2013-06-26 19:00:00,93.0,43.3,29.70,North,7,5.8,6.3,18,0.00,,CLR,0.00,VWS V14.01,2013-06-27 00:00:00,
2013-06-26 19:02:00,93.0,43.3,29.70,North,5,4.9,5.8,18,0.00,,CLR,0.00,VWS V14.01,2013-06-27 00:02:00,
2013-06-26 19:05:00,93.0,43.3,29.70,NNE,14,4.0,4.0,18,0.00,,SCT100,0.00,VWS V14.01,2013-06-27 00:05:00,
2013-06-26 19:06:00,93.0,43.3,29.70,NNW,338,4.0,5.8,18,0.00,,SCT100,0.00,VWS V14.01,2013-06-27 00:06:00,
2013-06-26 19:07:00,92.8,43.2,29.70,North,6,5.4,8.7,18,0.00,,SCT100,0.00,VWS V14.01,2013-06-27 00:07:00,
2013-06-26 19:11:00,92.7,43.0,29.67,North,0,3.1,4.0,18,0.00,,SCT100,0.00,VWS V14.01,2013-06-27 00:11:00,
2013-06-26 19:12:00,92.7,43.0,29.67,North,7,5.4,5.4,18,0.00,,SCT100,0.00,VWS V14.01,2013-06-27 00:12:00,
2013-06-26 19:13:00,92.5,42.9,29.67,North,4,3.6,5.4,18,0.00,,SCT100,0.00,VWS V14.01,2013-06-27 00:13:00,
2013-06-26 19:16:00,92.7,43.0,29.67,North,2,2.7,2.7,18,0.00,,SCT100,0.00,VWS V14.01,2013-06-27 00:16:00,
2013-06-26 19:17:00,92.7,43.0,29.67,NNW,333,5.4,5.4,18,0.00,,SCT100,0.00,VWS V14.01,2013-06-27 00:17:00,
2013-06-26 19:18:00,92.5,42.9,29.67,NNW,341,3.6,3.6,18,0.00,,SCT100,0.00,VWS V14.01,2013-06-27 00:18:00,
2013-06-26 19:21:00,92.7,43.0,29.67,NNE,13,3.6,3.6,18,0.00,,SCT100,0.00,VWS V14.01,2013-06-27 00:21:00,
2013-06-26 19:22:00,92.7,43.0,29.67,North,8,4.5,4.9,18,0.00,,SCT100,0.00,VWS V14.01,2013-06-27 00:22:00,
2013-06-26 19:23:00,92.7,43.0,29.67,North,1,5.4,5.4,18,0.00,,SCT100,0.00,VWS V14.01,2013-06-27 00:23:00,
2013-06-26 19:24:00,92.5,42.9,29.67,NNE,19,5.4,5.4,18,0.00,,SCT100,0.00,VWS V14.01,2013-06-27 00:24:00,
2013-06-26 19:27:00,92.3,42.7,29.67,NE,37,5.4,5.4,18,0.00,,SCT100,0.00,VWS V14.01,2013-06-27 00:27:00,
2013-06-26 19:28:00,92.3,42.7,29.67,NNE,19,3.6,4.0,18,0.00,,SCT100,0.00,VWS V14.01,2013-06-27 00:28:00,
2013-06-26 19:29:00,92.3,42.7,29.67,NNE,12,4.0,4.0,18,0.00,,SCT100,0.00,VWS V14.01,2013-06-27 00:29:00,
2013-06-26 19:30:00,92.1,42.6,29.67,North,10,3.6,5.4,18,0.00,,SCT100,0.00,VWS V14.01,2013-06-27 00:30:00,
2013-06-26 19:32:00,92.1,42.6,29.67,NNE,13,5.4,5.4,18,0.00,,SCT100,0.00,VWS V14.01,2013-06-27 00:32:00,
2013-06-26 19:33:00,91.9,42.4,29.67,NNW,342,4.0,4.0,18,0.00,,SCT100,0.00,VWS V14.01,2013-06-27 00:33:00,
2013-06-26 19:34:00,91.9,42.4,29.67,North,0,2.7,3.6,18,0.00,,SCT100,0.00,VWS V14.01,2013-06-27 00:34:00,
2013-06-26 19:35:00,91.9,42.4,29.67,North,353,2.7,3.6,18,0.00,,SCT100,0.00,VWS V14.01,2013-06-27 00:35:00,
2013-06-26 19:36:00,91.9,42.4,29.67,North,4,3.1,4.0,18,0.00,,SCT100,0.00,VWS V14.01,2013-06-27 00:36:00,
2013-06-26 19:39:00,91.9,42.4,29.67,NNE,13,3.6,4.0,18,0.00,,SCT100,0.00,VWS V14.01,2013-06-27 00:39:00,
2013-06-26 19:40:00,91.8,42.3,29.67,NNE,12,3.6,4.0,18,0.00,,SCT100,0.00,VWS V14.01,2013-06-27 00:40:00,
2013-06-26 19:41:00,91.8,42.3,29.67,North,350,3.6,4.0,18,0.00,,SCT100,0.00,VWS V14.01,2013-06-27 00:41:00,
2013-06-26 19:42:00,91.8,42.3,29.67,North,350,2.2,3.6,18,0.00,,SCT100,0.00,VWS V14.01,2013-06-27 00:42:00,
2013-06-26 19:45:00,91.6,42.1,29.67,North,0,0.0,3.1,18,0.00,,SCT100,0.00,VWS V14.01,2013-06-27 00:45:00,
2013-06-26 19:46:00,91.6,42.1,29.67,North,0,2.7,3.6,18,0.00,,SCT100,0.00,VWS V14.01,2013-06-27 00:46:00,
2013-06-26 19:47:00,91.6,42.1,29.67,North,4,2.7,2.7,18,0.00,,SCT100,0.00,VWS V14.01,2013-06-27 00:47:00,
2013-06-26 19:48:00,91.4,42.0,29.67,North,4,3.1,3.1,18,0.00,,SCT100,0.00,VWS V14.01,2013-06-27 00:48:00,
2013-06-26 19:50:00,91.2,44.6,29.67,North,4,3.1,3.1,20,0.00,,SCT100,0.00,VWS V14.01,2013-06-27 00:50:00,
2013-06-26 19:51:00,91.2,44.6,29.67,North,4,3.1,3.1,20,0.00,,SCT100,0.00,VWS V14.01,2013-06-27 00:51:00,
2013-06-26 19:52:00,91.2,44.6,29.67,North,7,2.7,3.1,20,0.00,,SCT100,0.00,VWS V14.01,2013-06-27 00:52:00,
2013-06-26 19:53:00,91.0,44.4,29.67,North,7,3.6,4.9,20,0.00,,SCT100,0.00,VWS V14.01,2013-06-27 00:53:00,
2013-06-26 19:56:00,90.5,44.0,29.67,North,357,2.7,3.1,20,0.00,,SCT100,0.00,VWS V14.01,2013-06-27 00:56:00,
2013-06-26 19:57:00,90.3,43.8,29.67,North,357,3.6,3.6,20,0.00,,SCT100,0.00,VWS V14.01,2013-06-27 00:57:00,
2013-06-26 19:59:00,90.1,43.7,29.67,NNE,13,4.0,4.9,20,0.00,,SCT100,0.00,VWS V14.01,2013-06-27 00:59:00,
2013-06-26 20:00:00,89.8,43.4,29.67,NNE,14,3.6,4.0,20,0.00,,SCT100,0.00,VWS V14.01,2013-06-27 01:00:00,
2013-06-26 20:01:00,89.6,43.3,29.67,NNE,14,3.1,3.6,20,0.00,,SCT100,0.00,VWS V14.01,2013-06-27 01:01:00,
2013-06-26 20:02:00,89.2,43.0,29.67,North,5,3.6,3.6,20,0.00,,SCT100,0.00,VWS V14.01,2013-06-27 01:02:00,
2013-06-26 20:06:00,88.5,49.3,29.67,North,6,3.1,3.6,26,0.00,,CLR,0.00,VWS V14.01,2013-06-27 01:06:00,
2013-06-26 20:07:00,88.3,49.1,29.67,North,6,4.0,4.0,26,0.00,,CLR,0.00,VWS V14.01,2013-06-27 01:07:00,
2013-06-26 20:08:00,88.2,49.0,29.67,North,11,3.1,4.0,26,0.00,,CLR,0.00,VWS V14.01,2013-06-27 01:08:00,
2013-06-26 20:09:00,87.8,48.7,29.67,North,10,2.7,4.0,26,0.00,,CLR,0.00,VWS V14.01,2013-06-27 01:09:00,
2013-06-26 20:12:00,87.3,48.2,29.67,North,10,3.1,3.1,26,0.00,,CLR,0.00,VWS V14.01,2013-06-27 01:12:00,
2013-06-26 20:13:00,86.9,53.5,29.67,North,10,3.1,3.1,32,0.00,,CLR,0.00,VWS V14.01,2013-06-27 01:13:00,
2013-06-26 20:14:00,86.7,53.4,29.67,North,10,3.1,3.1,32,0.00,,CLR,0.00,VWS V14.01,2013-06-27 01:14:00,
2013-06-26 20:17:00,86.0,52.7,29.67,North,9,3.6,3.6,32,0.00,,CLR,0.00,VWS V14.01,2013-06-27 01:17:00,
2013-06-26 20:18:00,85.6,55.7,29.67,North,9,3.6,4.0,36,0.00,,CLR,0.00,VWS V14.01,2013-06-27 01:18:00,
2013-06-26 20:19:00,85.6,55.7,29.67,North,3,4.0,4.0,36,0.00,,CLR,0.00,VWS V14.01,2013-06-27 01:19:00,
2013-06-26 20:21:00,85.3,56.8,29.67,NNW,339,3.1,3.1,38,0.00,,CLR,0.00,VWS V14.01,2013-06-27 01:21:00,
2013-06-26 20:22:00,84.9,56.5,29.67,NNW,339,3.1,3.1,38,0.00,,CLR,0.00,VWS V14.01,2013-06-27 01:22:00,
2013-06-26 20:23:00,84.9,56.5,29.67,North,353,3.6,3.6,38,0.00,,CLR,0.00,VWS V14.01,2013-06-27 01:23:00,
2013-06-26 20:24:00,84.7,56.3,29.67,NNW,346,3.6,4.9,38,0.00,,CLR,0.00,VWS V14.01,2013-06-27 01:24:00,
2013-06-26 20:27:00,84.2,55.9,29.67,North,353,3.6,3.6,38,0.00,,CLR,0.00,VWS V14.01,2013-06-27 01:27:00,
2013-06-26 20:29:00,83.8,57.0,29.67,North,353,2.7,3.1,40,0.00,,CLR,0.00,VWS V14.01,2013-06-27 01:29:00,
2013-06-26 20:30:00,83.7,56.8,29.67,North,353,3.1,3.6,40,0.00,,CLR,0.00,VWS V14.01,2013-06-27 01:30:00,
2013-06-26 20:33:00,83.3,57.8,29.67,North,357,3.1,3.6,42,0.00,,CLR,0.00,VWS V14.01,2013-06-27 01:33:00,
2013-06-26 20:34:00,83.3,57.8,29.67,North,357,3.1,3.1,42,0.00,,CLR,0.00,VWS V14.01,2013-06-27 01:34:00,
2013-06-26 20:35:00,83.1,57.7,29.67,North,357,3.1,3.1,42,0.00,,CLR,0.00,VWS V14.01,2013-06-27 01:35:00,
2013-06-26 20:36:00,83.1,57.7,29.67,North,357,2.2,3.1,42,0.00,,CLR,0.00,VWS V14.01,2013-06-27 01:36:00,
2013-06-26 20:39:00,82.9,57.5,29.67,North,357,2.7,3.1,42,0.00,,CLR,0.00,VWS V14.01,2013-06-27 01:39:00,
2013-06-26 20:41:00,82.8,58.7,29.67,North,357,2.7,2.7,44,0.00,,CLR,0.00,VWS V14.01,2013-06-27 01:41:00,
2013-06-26 20:42:00,82.6,58.5,29.67,North,357,2.7,2.7,44,0.00,,CLR,0.00,VWS V14.01,2013-06-27 01:42:00,
2013-06-26 20:45:00,82.4,58.3,29.67,North,357,3.1,3.1,44,0.00,,CLR,0.00,VWS V14.01,2013-06-27 01:45:00,
2013-06-26 20:46:00,82.4,59.6,29.67,North,357,2.7,2.7,46,0.00,,CLR,0.00,VWS V14.01,2013-06-27 01:46:00,
2013-06-26 20:47:00,82.4,59.6,29.67,North,357,3.6,3.6,46,0.00,,CLR,0.00,VWS V14.01,2013-06-27 01:47:00,
2013-06-26 20:51:00,82.0,61.6,29.67,North,0,3.1,3.6,50,0.00,,CLR,0.00,VWS V14.01,2013-06-27 01:51:00,
2013-06-26 20:52:00,82.0,61.6,29.67,North,0,3.6,4.0,50,0.00,,CLR,0.00,VWS V14.01,2013-06-27 01:52:00,
2013-06-26 20:56:00,81.5,63.3,29.67,North,0,0.0,2.7,54,0.00,,CLR,0.00,VWS V14.01,2013-06-27 01:56:00,
2013-06-26 20:57:00,81.5,63.3,29.67,North,0,2.2,2.7,54,0.00,,CLR,0.00,VWS V14.01,2013-06-27 01:57:00,
2013-06-26 20:58:00,81.5,63.3,29.67,North,0,2.2,2.2,54,0.00,,CLR,0.00,VWS V14.01,2013-06-27 01:58:00,
2013-06-26 21:02:00,81.3,63.1,29.67,North,0,0.0,0.0,54,0.00,,CLR,0.00,VWS V14.01,2013-06-27 02:02:00,
2013-06-26 21:03:00,81.3,63.1,29.67,North,0,0.0,0.0,54,0.00,,CLR,0.00,VWS V14.01,2013-06-27 02:03:00,
2013-06-26 21:04:00,81.3,63.1,29.67,North,0,0.0,0.0,54,0.00,,CLR,0.00,VWS V14.01,2013-06-27 02:04:00,
2013-06-26 21:07:00,81.1,62.9,29.67,North,0,0.0,0.0,54,0.00,,CLR,0.00,VWS V14.01,2013-06-27 02:07:00,
2013-06-26 21:08:00,81.0,62.8,29.67,North,0,0.0,0.0,54,0.00,,CLR,0.00,VWS V14.01,2013-06-27 02:08:00,
2013-06-26 21:09:00,81.0,62.8,29.67,North,0,0.0,0.0,54,0.00,,CLR,0.00,VWS V14.01,2013-06-27 02:09:00,
2013-06-26 21:10:00,80.8,62.6,29.67,North,0,0.0,0.0,54,0.00,,CLR,0.00,VWS V14.01,2013-06-27 02:10:00,
2013-06-26 21:12:00,80.6,62.4,29.70,North,0,0.0,0.0,54,0.00,,CLR,0.00,VWS V14.01,2013-06-27 02:12:00,
2013-06-26 21:13:00,80.4,63.3,29.70,North,0,0.0,0.0,56,0.00,,CLR,0.00,VWS V14.01,2013-06-27 02:13:00,
2013-06-26 21:14:00,80.4,63.3,29.70,North,0,0.0,0.0,56,0.00,,CLR,0.00,VWS V14.01,2013-06-27 02:14:00,
2013-06-26 21:16:00,80.4,64.3,29.70,North,0,0.0,0.0,58,0.00,,CLR,0.00,VWS V14.01,2013-06-27 02:16:00,
2013-06-26 21:18:00,80.2,64.1,29.70,North,0,0.0,0.0,58,0.00,,CLR,0.00,VWS V14.01,2013-06-27 02:18:00,
2013-06-26 21:19:00,80.2,64.1,29.70,North,0,0.0,0.0,58,0.00,,CLR,0.00,VWS V14.01,2013-06-27 02:19:00,
2013-06-26 21:21:00,80.2,65.1,29.70,North,0,0.0,2.2,60,0.00,,CLR,0.00,VWS V14.01,2013-06-27 02:21:00,
2013-06-26 21:22:00,80.2,65.1,29.70,North,0,0.0,2.2,60,0.00,,CLR,0.00,VWS V14.01,2013-06-27 02:22:00,
2013-06-26 21:23:00,80.2,65.1,29.70,North,0,0.0,0.0,60,0.00,,CLR,0.00,VWS V14.01,2013-06-27 02:23:00,
2013-06-26 21:24:00,80.2,65.1,29.70,North,0,0.0,0.0,60,0.00,,CLR,0.00,VWS V14.01,2013-06-27 02:24:00,
2013-06-26 21:25:00,80.2,65.1,29.70,North,0,0.0,0.0,60,0.00,,CLR,0.00,VWS V14.01,2013-06-27 02:25:00,
2013-06-26 21:27:00,80.2,65.1,29.70,North,0,0.0,0.0,60,0.00,,CLR,0.00,VWS V14.01,2013-06-27 02:27:00,
2013-06-26 21:29:00,80.1,64.9,29.70,North,0,0.0,0.0,60,0.00,,CLR,0.00,VWS V14.01,2013-06-27 02:29:00,
2013-06-26 21:30:00,80.1,64.9,29.70,North,0,0.0,0.0,60,0.00,,CLR,0.00,VWS V14.01,2013-06-27 02:30:00,
2013-06-26 21:31:00,80.1,64.9,29.70,North,0,0.0,0.0,60,0.00,,CLR,0.00,VWS V14.01,2013-06-27 02:31:00,
2013-06-26 21:33:00,80.1,64.9,29.70,North,0,0.0,0.0,60,0.00,,CLR,0.00,VWS V14.01,2013-06-27 02:33:00,
2013-06-26 21:34:00,79.9,64.8,29.70,North,0,0.0,0.0,60,0.00,,CLR,0.00,VWS V14.01,2013-06-27 02:34:00,
2013-06-26 21:35:00,79.9,64.8,29.70,North,0,0.0,0.0,60,0.00,,CLR,0.00,VWS V14.01,2013-06-27 02:35:00,
2013-06-26 21:37:00,79.9,65.7,29.70,North,0,0.0,0.0,62,0.00,,CLR,0.00,VWS V14.01,2013-06-27 02:37:00,
2013-06-26 21:38:00,79.9,65.7,29.70,North,0,0.0,0.0,62,0.00,,CLR,0.00,VWS V14.01,2013-06-27 02:38:00,
2013-06-26 21:39:00,79.9,65.7,29.70,North,0,0.0,0.0,62,0.00,,CLR,0.00,VWS V14.01,2013-06-27 02:39:00,
2013-06-26 21:40:00,79.9,65.7,29.70,North,0,0.0,0.0,62,0.00,,CLR,0.00,VWS V14.01,2013-06-27 02:40:00,
2013-06-26 21:42:00,79.9,65.7,29.70,North,0,0.0,0.0,62,0.00,,CLR,0.00,VWS V14.01,2013-06-27 02:42:00,
2013-06-26 21:44:00,79.9,65.7,29.70,North,0,0.0,0.0,62,0.00,,CLR,0.00,VWS V14.01,2013-06-27 02:44:00,
2013-06-26 21:45:00,79.9,65.7,29.70,North,0,0.0,0.0,62,0.00,,CLR,0.00,VWS V14.01,2013-06-27 02:45:00,
2013-06-26 21:46:00,79.9,65.7,29.70,North,0,0.0,0.0,62,0.00,,CLR,0.00,VWS V14.01,2013-06-27 02:46:00,
2013-06-26 21:48:00,79.9,65.7,29.70,North,0,0.0,0.0,62,0.00,,CLR,0.00,VWS V14.01,2013-06-27 02:48:00,
2013-06-26 21:49:00,79.7,65.5,29.70,North,0,0.0,0.0,62,0.00,,CLR,0.00,VWS V14.01,2013-06-27 02:49:00,
2013-06-26 21:50:00,79.7,65.5,29.70,North,0,0.0,0.0,62,0.00,,CLR,0.00,VWS V14.01,2013-06-27 02:50:00,
2013-06-26 21:51:00,79.7,65.5,29.70,North,0,0.0,0.0,62,0.00,,CLR,0.00,VWS V14.01,2013-06-27 02:51:00,
2013-06-26 21:54:00,79.7,65.5,29.70,North,0,0.0,0.0,62,0.00,,CLR,0.00,VWS V14.01,2013-06-27 02:54:00,
2013-06-26 21:55:00,79.7,65.5,29.70,North,0,0.0,0.0,62,0.00,,CLR,0.00,VWS V14.01,2013-06-27 02:55:00,
2013-06-26 21:56:00,79.7,65.5,29.70,North,0,0.0,0.0,62,0.00,,CLR,0.00,VWS V14.01,2013-06-27 02:56:00,
2013-06-26 21:57:00,79.7,65.5,29.70,North,0,0.0,0.0,62,0.00,,CLR,0.00,VWS V14.01,2013-06-27 02:57:00,
2013-06-26 22:00:00,79.5,66.3,29.70,North,0,0.0,0.0,64,0.00,,CLR,0.00,VWS V14.01,2013-06-27 03:00:00,
2013-06-26 22:01:00,79.5,66.3,29.70,North,0,0.0,0.0,64,0.00,,CLR,0.00,VWS V14.01,2013-06-27 03:01:00,
2013-06-26 22:02:00,79.5,66.3,29.70,North,0,0.0,0.0,64,0.00,,CLR,0.00,VWS V14.01,2013-06-27 03:02:00,
2013-06-26 22:03:00,79.5,66.3,29.70,North,0,0.0,0.0,64,0.00,,CLR,0.00,VWS V14.01,2013-06-27 03:03:00,
2013-06-26 22:05:00,79.5,66.3,29.70,North,0,0.0,0.0,64,0.00,,CLR,0.00,VWS V14.01,2013-06-27 03:05:00,
2013-06-26 22:06:00,79.5,66.3,29.70,North,0,0.0,0.0,64,0.00,,CLR,0.00,VWS V14.01,2013-06-27 03:06:00,
2013-06-26 22:07:00,79.5,66.3,29.70,North,0,0.0,0.0,64,0.00,,CLR,0.00,VWS V14.01,2013-06-27 03:07:00,
2013-06-26 22:08:00,79.5,66.3,29.70,North,0,0.0,0.0,64,0.00,,CLR,0.00,VWS V14.01,2013-06-27 03:08:00,
2013-06-26 22:11:00,79.5,66.3,29.70,North,0,0.0,0.0,64,0.00,,CLR,0.00,VWS V14.01,2013-06-27 03:11:00,
2013-06-26 22:12:00,79.5,67.2,29.70,North,0,0.0,0.0,66,0.00,,CLR,0.00,VWS V14.01,2013-06-27 03:12:00,
2013-06-26 22:14:00,79.5,67.2,29.70,North,0,0.0,0.0,66,0.00,,CLR,0.00,VWS V14.01,2013-06-27 03:14:00,
2013-06-26 22:17:00,79.3,67.0,29.70,North,0,0.0,0.0,66,0.00,,CLR,0.00,VWS V14.01,2013-06-27 03:17:00,
2013-06-26 22:18:00,79.3,67.0,29.70,North,0,0.0,0.0,66,0.00,,CLR,0.00,VWS V14.01,2013-06-27 03:18:00,
2013-06-26 22:19:00,79.2,66.8,29.70,North,0,0.0,0.0,66,0.00,,CLR,0.00,VWS V14.01,2013-06-27 03:19:00,
2013-06-26 22:20:00,79.2,66.8,29.70,North,0,0.0,0.0,66,0.00,,CLR,0.00,VWS V14.01,2013-06-27 03:20:00,
2013-06-26 22:22:00,79.2,67.7,29.70,North,0,0.0,0.0,68,0.00,,CLR,0.00,VWS V14.01,2013-06-27 03:22:00,
2013-06-26 22:23:00,79.2,67.7,29.70,North,0,0.0,0.0,68,0.00,,CLR,0.00,VWS V14.01,2013-06-27 03:23:00,
2013-06-26 22:24:00,79.2,67.7,29.70,North,0,0.0,0.0,68,0.00,,CLR,0.00,VWS V14.01,2013-06-27 03:24:00,
2013-06-26 22:25:00,79.2,67.7,29.70,North,0,0.0,0.0,68,0.00,,CLR,0.00,VWS V14.01,2013-06-27 03:25:00,
2013-06-26 22:27:00,79.2,68.5,29.72,North,0,0.0,0.0,70,0.00,,CLR,0.00,VWS V14.01,2013-06-27 03:27:00,
2013-06-26 22:28:00,79.2,68.5,29.72,North,0,0.0,0.0,70,0.00,,CLR,0.00,VWS V14.01,2013-06-27 03:28:00,
2013-06-26 22:29:00,79.3,68.7,29.72,North,0,0.0,0.0,70,0.00,,CLR,0.00,VWS V14.01,2013-06-27 03:29:00,
2013-06-26 22:31:00,79.2,68.5,29.72,North,0,0.0,0.0,70,0.00,,CLR,0.00,VWS V14.01,2013-06-27 03:31:00,
2013-06-26 22:32:00,79.2,68.5,29.72,North,0,0.0,0.0,70,0.00,,CLR,0.00,VWS V14.01,2013-06-27 03:32:00,
2013-06-26 22:33:00,79.2,68.5,29.72,North,0,0.0,0.0,70,0.00,,CLR,0.00,VWS V14.01,2013-06-27 03:33:00,
2013-06-26 22:34:00,79.2,68.5,29.72,North,0,0.0,0.0,70,0.00,,CLR,0.00,VWS V14.01,2013-06-27 03:34:00,
2013-06-26 22:36:00,79.2,68.5,29.72,North,0,0.0,0.0,70,0.00,,CLR,0.00,VWS V14.01,2013-06-27 03:36:00,
2013-06-26 22:38:00,79.0,68.4,29.72,North,0,0.0,0.0,70,0.00,,CLR,0.00,VWS V14.01,2013-06-27 03:38:00,
2013-06-26 22:39:00,79.0,68.4,29.72,North,0,0.0,0.0,70,0.00,,CLR,0.00,VWS V14.01,2013-06-27 03:39:00,
2013-06-26 22:41:00,79.0,68.4,29.72,North,0,0.0,0.0,70,0.00,,CLR,0.00,VWS V14.01,2013-06-27 03:41:00,
2013-06-26 22:43:00,79.0,68.4,29.72,North,0,0.0,0.0,70,0.00,,CLR,0.00,VWS V14.01,2013-06-27 03:43:00,
2013-06-26 22:44:00,78.8,68.2,29.72,North,0,0.0,0.0,70,0.00,,CLR,0.00,VWS V14.01,2013-06-27 03:44:00,
2013-06-26 22:46:00,78.8,68.2,29.72,North,0,0.0,0.0,70,0.00,,CLR,0.00,VWS V14.01,2013-06-27 03:46:00,
2013-06-26 22:47:00,78.8,68.2,29.72,North,0,0.0,0.0,70,0.00,,CLR,0.00,VWS V14.01,2013-06-27 03:47:00,
2013-06-26 22:49:00,78.6,68.8,29.72,North,0,0.0,0.0,72,0.00,,CLR,0.00,VWS V14.01,2013-06-27 03:49:00,
2013-06-26 22:52:00,78.6,69.7,29.72,North,0,0.0,0.0,74,0.00,,CLR,0.00,VWS V14.01,2013-06-27 03:52:00,
2013-06-26 22:54:00,78.6,69.7,29.72,North,0,0.0,0.0,74,0.00,,CLR,0.00,VWS V14.01,2013-06-27 03:54:00,
2013-06-26 22:56:00,78.6,69.7,29.72,North,0,0.0,0.0,74,0.00,,CLR,0.00,VWS V14.01,2013-06-27 03:56:00,
2013-06-26 22:57:00,78.6,69.7,29.72,North,0,0.0,0.0,74,0.00,,CLR,0.00,VWS V14.01,2013-06-27 03:57:00,
2013-06-26 22:58:00,78.6,69.7,29.72,North,0,0.0,0.0,74,0.00,,CLR,0.00,VWS V14.01,2013-06-27 03:58:00,
2013-06-26 23:00:00,78.6,69.7,29.72,North,0,0.0,0.0,74,0.00,,CLR,0.00,VWS V14.01,2013-06-27 04:00:00,
2013-06-26 23:01:00,78.4,69.5,29.72,North,0,0.0,0.0,74,0.00,,CLR,0.00,VWS V14.01,2013-06-27 04:01:00,
2013-06-26 23:02:00,78.4,69.5,29.72,North,0,0.0,0.0,74,0.00,,CLR,0.00,VWS V14.01,2013-06-27 04:02:00,
2013-06-26 23:06:00,78.3,70.1,29.72,North,0,0.0,0.0,76,0.00,,CLR,0.00,VWS V14.01,2013-06-27 04:06:00,
2013-06-26 23:07:00,78.3,70.1,29.72,North,0,0.0,0.0,76,0.00,,CLR,0.00,VWS V14.01,2013-06-27 04:07:00,
2013-06-26 23:08:00,78.3,70.1,29.72,North,0,0.0,0.0,76,0.00,,CLR,0.00,VWS V14.01,2013-06-27 04:08:00,
2013-06-26 23:09:00,78.3,70.1,29.72,North,0,0.0,0.0,76,0.00,,CLR,0.00,VWS V14.01,2013-06-27 04:09:00,
2013-06-26 23:11:00,78.3,70.8,29.72,North,353,2.7,2.7,78,0.00,,CLR,0.00,VWS V14.01,2013-06-27 04:11:00,
2013-06-26 23:12:00,78.3,70.8,29.72,North,353,2.7,2.7,78,0.00,,CLR,0.00,VWS V14.01,2013-06-27 04:12:00,
2013-06-26 23:13:00,78.3,70.8,29.72,NNW,340,3.1,3.1,78,0.00,,CLR,0.00,VWS V14.01,2013-06-27 04:13:00,
2013-06-26 23:14:00,78.3,70.8,29.72,NNW,340,2.2,3.1,78,0.00,,CLR,0.00,VWS V14.01,2013-06-27 04:14:00,
2013-06-26 23:17:00,78.4,71.0,29.72,NNW,340,0.0,0.0,78,0.00,,CLR,0.00,VWS V14.01,2013-06-27 04:17:00,
2013-06-26 23:18:00,78.4,70.2,29.72,NNW,340,0.0,0.0,76,0.00,,CLR,0.00,VWS V14.01,2013-06-27 04:18:00,
2013-06-26 23:19:00,78.4,70.2,29.72,NNW,340,0.0,0.0,76,0.00,,CLR,0.00,VWS V14.01,2013-06-27 04:19:00,
2013-06-26 23:22:00,78.3,69.3,29.72,NNW,340,0.0,0.0,74,0.00,,CLR,0.00,VWS V14.01,2013-06-27 04:22:00,
2013-06-26 23:23:00,78.1,69.1,29.72,NNW,340,0.0,0.0,74,0.00,,CLR,0.00,VWS V14.01,2013-06-27 04:23:00,
2013-06-26 23:24:00,78.1,69.1,29.72,NNW,340,0.0,0.0,74,0.00,,CLR,0.00,VWS V14.01,2013-06-27 04:24:00,
2013-06-26 23:25:00,78.1,69.1,29.72,NNW,340,0.0,0.0,74,0.00,,CLR,0.00,VWS V14.01,2013-06-27 04:25:00,
2013-06-26 23:29:00,77.7,68.8,29.72,NNW,340,0.0,0.0,74,0.00,,CLR,0.00,VWS V14.01,2013-06-27 04:29:00,
2013-06-26 23:31:00,77.7,69.6,29.72,NNW,340,0.0,0.0,76,0.00,,CLR,0.00,VWS V14.01,2013-06-27 04:31:00,
2013-06-26 23:34:00,77.9,69.7,29.72,NNW,339,3.1,3.1,76,0.00,,CLR,0.00,VWS V14.01,2013-06-27 04:34:00,
2013-06-26 23:35:00,77.7,68.8,29.72,NW,310,4.9,4.9,74,0.00,,CLR,0.00,VWS V14.01,2013-06-27 04:35:00,
2013-06-26 23:36:00,77.7,67.2,29.72,NW,314,3.1,4.0,70,0.00,,CLR,0.00,VWS V14.01,2013-06-27 04:36:00,
2013-06-26 23:39:00,77.7,65.5,29.72,NW,321,3.6,4.0,66,0.00,,CLR,0.00,VWS V14.01,2013-06-27 04:39:00,
2013-06-26 23:41:00,77.7,65.5,29.72,NW,326,3.6,4.0,66,0.00,,CLR,0.00,VWS V14.01,2013-06-27 04:41:00,
2013-06-26 23:42:00,77.7,65.5,29.72,NW,326,2.7,4.0,66,0.00,,CLR,0.00,VWS V14.01,2013-06-27 04:42:00,
2013-06-26 23:44:00,77.7,64.6,29.72,West,265,4.0,4.0,64,0.00,,CLR,0.00,VWS V14.01,2013-06-27 04:44:00,
2013-06-26 23:45:00,77.5,64.4,29.72,NW,307,5.4,5.4,64,0.00,,CLR,0.00,VWS V14.01,2013-06-27 04:45:00,
2013-06-26 23:47:00,77.5,63.5,29.72,NW,319,5.4,5.4,62,0.00,,CLR,0.00,VWS V14.01,2013-06-27 04:47:00,
2013-06-26 23:50:00,77.5,63.5,29.72,NW,319,3.1,5.4,62,0.00,,CLR,0.00,VWS V14.01,2013-06-27 04:50:00,
2013-06-26 23:52:00,77.5,63.5,29.72,NW,314,5.8,5.8,62,0.00,,CLR,0.00,VWS V14.01,2013-06-27 04:52:00,
2013-06-26 23:53:00,77.5,63.5,29.72,NW,318,4.0,5.8,62,0.00,,CLR,0.00,VWS V14.01,2013-06-27 04:53:00,
2013-06-26 23:54:00,77.5,63.5,29.72,NW,309,4.0,5.4,62,0.00,,CLR,0.00,VWS V14.01,2013-06-27 04:54:00,
2013-06-26 23:55:00,77.5,62.6,29.72,NW,319,5.4,5.4,60,0.00,,CLR,0.00,VWS V14.01,2013-06-27 04:55:00,
2013-06-26 23:57:00,77.7,62.7,29.72,NW,318,3.1,4.9,60,0.00,,CLR,0.00,VWS V14.01,2013-06-27 04:57:00,
2013-06-26 23:58:00,77.7,62.7,29.72,NW,307,5.4,5.4,60,0.00,,CLR,0.00,VWS V14.01,2013-06-27 04:58:00,